EW8144 Weather Reports


time (UTC)temp
C
wind
direction
speed
KPH
gust
KPH
rain 1hr
cm
rain 24hr
cm
rain mn
cm
humidity
%
barometer
mb
20260507185810 15 219 8.0 12.9 0.00 0.00 0.00 66 1014.6
20260507185713 15 240 9.7 14.5 0.00 0.00 0.00 66 1014.7
20260507185615 15 218 9.7 14.5 0.00 0.00 0.00 66 1014.7
20260507185551 15 219 8.0 14.5 0.00 0.00 0.00 66 1014.1
20260507185508 15 224 6.4 14.5 0.00 0.00 0.00 66 1014.7
20260507185412 15 204 6.4 14.5 0.00 0.00 0.00 66 1014.7
20260507185255 15 212 8.0 14.5 0.00 0.00 0.00 66 1014.6
20260507185158 15 201 8.0 14.5 0.00 0.00 0.00 66 1014.6
20260507185108 15 211 8.0 14.5 0.00 0.00 0.00 65 1014.0
20260507185028 15 251 8.0 14.5 0.00 0.00 0.00 65 1014.6
20260507184908 15 213 9.7 14.5 0.00 0.00 0.00 66 1014.6
20260507184810 15 214 9.7 14.5 0.00 0.00 0.00 66 1014.6
20260507184717 15 226 9.7 14.5 0.00 0.00 0.00 65 1014.6
20260507184628 15 234 9.7 16.1 0.00 0.00 0.00 65 1014.0
20260507184547 15 230 9.7 16.1 0.00 0.00 0.00 65 1014.6
20260507184428 15 211 8.0 16.1 0.00 0.00 0.00 65 1014.6
20260507184331 15 227 6.4 16.1 0.00 0.00 0.00 64 1014.5
20260507184235 15 232 8.0 16.1 0.00 0.00 0.00 64 1014.5
20260507184152 15 219 8.0 16.1 0.00 0.00 0.00 64 1013.9
20260507184107 15 227 9.7 16.1 0.00 0.00 0.00 64 1014.5
20260507184011 15 210 9.7 16.1 0.00 0.00 0.00 64 1014.5
20260507183852 15 209 11.3 16.1 0.00 0.00 0.00 64 1014.4
20260507183734 15 236 8.0 17.7 0.00 0.00 0.00 64 1014.4
20260507183629 15 233 8.0 17.7 0.00 0.00 0.00 64 1014.4
20260507183529 15 206 9.7 19.3 0.00 0.00 0.00 64 1014.4
20260507183408 15 222 9.7 19.3 0.00 0.00 0.00 64 1014.4
20260507183239 15 201 9.7 19.3 0.00 0.00 0.00 64 1014.4
20260507183145 15 224 11.3 19.3 0.00 0.00 0.00 64 1014.4
20260507183045 15 230 11.3 24.1 0.00 0.00 0.00 64 1014.3
20260507182928 15 222 11.3 24.1 0.00 0.00 0.00 64 1014.3
20260507182802 15 212 12.9 24.1 0.00 0.00 0.00 64 1014.3
20260507182702 15 230 12.9 24.1 0.00 0.00 0.00 64 1014.3
20260507182606 15 225 12.9 24.1 0.00 0.00 0.00 64 1014.3
20260507182511 15 239 11.3 24.1 0.00 0.00 0.00 64 1014.2
20260507182406 15 223 11.3 24.1 0.00 0.00 0.00 64 1014.3
20260507182310 15 238 14.5 24.1 0.00 0.00 0.00 64 1014.4
20260507182211 15 218 14.5 24.1 0.00 0.00 0.00 64 1014.3
20260507182113 15 244 11.3 19.3 0.00 0.00 0.00 64 1014.3
20260507182042 15 234 9.7 19.3 0.00 0.00 0.00 64 1013.8
20260507182004 15 236 9.7 19.3 0.00 0.00 0.00 64 1014.4
20260507181905 15 238 9.7 19.3 0.00 0.00 0.00 64 1014.3
20260507181812 16 247 8.0 19.3 0.00 0.00 0.00 64 1014.3
20260507181621 15 230 11.3 22.5 0.00 0.00 0.00 64 1013.7
20260507181535 16 228 14.5 22.5 0.00 0.00 0.00 64 1014.4
20260507181439 16 253 12.9 22.5 0.00 0.00 0.00 64 1014.3
20260507181320 16 243 11.3 22.5 0.00 0.00 0.00 64 1014.3
20260507181222 16 240 12.9 22.5 0.00 0.00 0.00 64 1014.3
20260507181201 15 226 12.9 22.5 0.00 0.00 0.00 64 1013.6
20260507181112 16 225 16.1 22.5 0.00 0.00 0.00 64 1014.3
20260507181017 16 245 14.5 22.5 0.00 0.00 0.00 64 1014.2
20260507180920 16 248 16.1 22.5 0.00 0.00 0.00 64 1014.3
20260507180813 16 239 14.5 22.5 0.00 0.00 0.00 64 1014.3
20260507180654 16 228 12.9 20.9 0.00 0.00 0.00 64 1014.2
20260507180554 16 240 12.9 20.9 0.00 0.00 0.00 64 1014.2
20260507180457 16 246 14.5 22.5 0.00 0.00 0.00 64 1014.3
20260507180342 16 226 14.5 22.5 0.00 0.00 0.00 64 1014.2
20260507180233 16 245 16.1 22.5 0.00 0.00 0.00 64 1014.2
20260507180117 16 232 16.1 22.5 0.00 0.00 0.00 64 1014.2
20260507180017 16 248 12.9 22.5 0.00 0.00 0.00 64 1014.2
20260507175909 16 240 9.7 22.5 0.00 0.00 0.00 64 1014.1
20260507175813 16 228 14.5 22.5 0.00 0.00 0.00 64 1014.1
20260507175717 16 245 14.5 22.5 0.00 0.00 0.00 64 1014.1
20260507175622 16 240 9.7 16.1 0.00 0.00 0.00 64 1014.0
20260507175504 16 228 11.3 16.1 0.00 0.00 0.00 64 1014.0
20260507175356 16 236 12.9 16.1 0.00 0.00 0.00 64 1014.0
20260507175258 16 245 11.3 16.1 0.00 0.00 0.00 64 1014.0
20260507175200 16 221 11.3 16.1 0.00 0.00 0.00 64 1014.0
20260507175049 16 253 11.3 16.1 0.00 0.00 0.00 64 1014.0
20260507175024 15 224 9.7 16.1 0.00 0.00 0.00 64 1013.3
20260507174945 16 247 11.3 16.1 0.00 0.00 0.00 64 1014.0
20260507174827 16 222 11.3 16.1 0.00 0.00 0.00 64 1013.9
20260507174709 16 236 11.3 16.1 0.00 0.00 0.00 64 1014.0
20260507174609 16 243 11.3 16.1 0.00 0.00 0.00 64 1013.9
20260507174546 15 233 9.7 16.1 0.00 0.00 0.00 64 1013.3
20260507174459 16 210 11.3 16.1 0.00 0.00 0.00 64 1013.9
20260507174137 15 247 9.7 16.1 0.00 0.00 0.00 64 1013.2
20260507174052 16 243 12.9 16.1 0.00 0.00 0.00 64 1013.8
20260507173958 16 230 12.9 17.7 0.00 0.00 0.00 64 1013.8
20260507173841 16 251 11.3 16.1 0.00 0.00 0.00 64 1013.8
20260507173744 16 222 11.3 16.1 0.00 0.00 0.00 64 1013.8
20260507173637 16 261 11.3 19.3 0.00 0.00 0.00 64 1013.8
20260507173536 16 245 8.0 19.3 0.00 0.00 0.00 64 1013.8
20260507173439 16 251 8.0 19.3 0.00 0.00 0.00 64 1013.7
20260507173346 16 229 9.7 19.3 0.00 0.00 0.00 64 1013.7
20260507173239 16 227 12.9 19.3 0.00 0.00 0.00 64 1013.7
20260507173142 16 244 12.9 19.3 0.00 0.00 0.00 64 1013.6
20260507173043 16 256 11.3 19.3 0.00 0.00 0.00 64 1013.6
20260507172946 16 228 12.9 19.3 0.00 0.00 0.00 64 1013.6
20260507172816 16 268 11.3 19.3 0.00 0.00 0.00 64 1013.6
20260507172721 16 217 9.7 19.3 0.00 0.00 0.00 64 1013.6
20260507172626 16 230 11.3 19.3 0.00 0.00 0.00 64 1013.6
20260507172523 16 240 14.5 19.3 0.00 0.00 0.00 63 1013.6
20260507172416 16 210 12.9 19.3 0.00 0.00 0.00 63 1013.7
20260507172320 16 226 11.3 22.5 0.00 0.00 0.00 63 1013.6
20260507172222 16 246 9.7 22.5 0.00 0.00 0.00 64 1013.6
20260507172123 16 243 9.7 22.5 0.00 0.00 0.00 64 1013.5
20260507172055 16 270 8.0 22.5 0.00 0.00 0.00 64 1012.9
20260507172017 16 240 9.7 24.1 0.00 0.00 0.00 64 1013.6
20260507171859 16 239 12.9 24.1 0.00 0.00 0.00 64 1013.6
20260507171802 16 259 12.9 24.1 0.00 0.00 0.00 63 1013.6
20260507171704 16 243 16.1 24.1 0.00 0.00 0.00 63 1013.6
20260507171637 16 236 14.5 24.1 0.00 0.00 0.00 63 1012.9
20260507171554 16 237 16.1 24.1 0.00 0.00 0.00 63 1013.5
20260507171457 16 247 14.5 24.1 0.00 0.00 0.00 63 1013.6
20260507171402 16 247 16.1 24.1 0.00 0.00 0.00 63 1013.6
20260507171305 16 228 16.1 24.1 0.00 0.00 0.00 63 1013.5
20260507171209 16 248 16.1 24.1 0.00 0.00 0.00 63 1013.5
20260507171144 16 245 14.5 24.1 0.00 0.00 0.00 63 1012.8
20260507171057 16 236 14.5 22.5 0.00 0.00 0.00 63 1013.5
20260507171001 16 230 12.9 22.5 0.00 0.00 0.00 63 1013.5
20260507170901 16 253 12.9 22.5 0.00 0.00 0.00 63 1013.4
20260507170754 16 226 11.3 20.9 0.00 0.00 0.00 62 1013.4
20260507170701 16 235 14.5 20.9 0.00 0.00 0.00 62 1013.4
20260507170540 16 245 12.9 19.3 0.00 0.00 0.00 62 1013.4
20260507170422 16 213 11.3 24.1 0.00 0.00 0.00 62 1013.4
20260507170254 16 242 12.9 24.1 0.00 0.00 0.00 62 1013.3
20260507170155 16 223 12.9 24.1 0.00 0.00 0.00 62 1013.4
20260507170032 16 229 16.1 24.1 0.00 0.00 0.00 61 1013.4
20260507165939 16 246 16.1 24.1 0.00 0.00 0.00 62 1013.3
20260507165832 16 255 16.1 25.7 0.00 0.00 0.00 61 1013.3
20260507165735 16 243 19.3 27.4 0.00 0.00 0.00 61 1013.3
20260507165637 16 244 19.3 27.4 0.00 0.00 0.00 61 1013.4
20260507165538 16 228 17.7 27.4 0.00 0.00 0.00 61 1013.4
20260507165514 16 230 14.5 27.4 0.00 0.00 0.00 61 1012.7
20260507165432 16 232 14.5 27.4 0.00 0.00 0.00 61 1013.4
20260507165335 16 245 16.1 27.4 0.00 0.00 0.00 61 1013.3
20260507165046 16 242 20.9 27.4 0.00 0.00 0.00 61 1013.4
20260507165024 16 239 20.9 27.4 0.00 0.00 0.00 61 1012.7
20260507164940 16 228 20.9 27.4 0.00 0.00 0.00 62 1013.3
20260507164842 16 236 19.3 27.4 0.00 0.00 0.00 62 1013.3
20260507164746 16 271 20.9 27.4 0.00 0.00 0.00 61 1013.1
20260507164616 16 240 17.7 24.1 0.00 0.00 0.00 62 1013.2
20260507164517 16 228 14.5 25.7 0.00 0.00 0.00 62 1013.1
20260507164421 16 245 12.9 27.4 0.00 0.00 0.00 62 1013.1
20260507164324 16 254 12.9 27.4 0.00 0.00 0.00 62 1013.1
20260507164224 16 239 14.5 27.4 0.00 0.00 0.00 62 1013.1
20260507164117 16 249 16.1 27.4 0.00 0.00 0.00 62 1013.1
20260507164017 16 236 14.5 27.4 0.00 0.00 0.00 62 1013.1
20260507163920 16 245 16.1 27.4 0.00 0.00 0.00 62 1013.1
20260507163818 16 221 17.7 27.4 0.00 0.00 0.00 62 1013.1
20260507163720 16 233 17.7 27.4 0.00 0.00 0.00 62 1013.1
20260507163622 16 249 17.7 27.4 0.00 0.00 0.00 62 1013.2
20260507163523 16 232 19.3 27.4 0.00 0.00 0.00 62 1013.2
20260507163416 16 254 16.1 25.7 0.00 0.00 0.00 62 1013.1
20260507163318 16 257 17.7 25.7 0.00 0.00 0.00 62 1013.1
20260507163200 16 240 17.7 25.7 0.00 0.00 0.00 61 1013.1
20260507163043 17 247 19.3 25.7 0.00 0.00 0.00 62 1013.1
20260507163016 16 256 17.7 25.7 0.00 0.00 0.00 62 1012.5
20260507162935 17 245 17.7 25.7 0.00 0.00 0.00 62 1013.1
20260507162816 17 249 17.7 25.7 0.00 0.00 0.00 61 1013.2
20260507162720 17 234 19.3 25.7 0.00 0.00 0.00 61 1013.2
20260507162559 17 229 17.7 24.1 0.00 0.00 0.00 61 1013.1
20260507162518 16 221 17.7 24.1 0.00 0.00 0.00 61 1012.5
20260507162411 17 235 17.7 24.1 0.00 0.00 0.00 60 1013.1
20260507162317 17 234 16.1 24.1 0.00 0.00 0.00 60 1013.2
20260507162157 17 246 14.5 24.1 0.00 0.00 0.00 60 1013.1
20260507162057 17 240 16.1 24.1 0.00 0.00 0.00 60 1013.1
20260507162002 17 195 14.5 24.1 0.00 0.00 0.00 60 1013.1
20260507161833 17 239 12.9 24.1 0.00 0.00 0.00 60 1013.1
20260507161735 17 249 14.5 25.7 0.00 0.00 0.00 60 1013.2
20260507161645 17 193 12.9 25.7 0.00 0.00 0.00 60 1012.5
20260507161612 17 241 16.1 25.7 0.00 0.00 0.00 60 1013.2
20260507161513 17 234 16.1 25.7 0.00 0.00 0.00 60 1013.2
20260507161416 17 250 14.5 25.7 0.00 0.00 0.00 60 1013.2
20260507161319 17 226 14.5 25.7 0.00 0.00 0.00 60 1013.1
20260507161204 17 237 16.1 29.0 0.00 0.00 0.00 59 1013.1
20260507161107 17 232 17.7 29.0 0.00 0.00 0.00 59 1013.1
20260507161006 17 238 19.3 29.0 0.00 0.00 0.00 59 1013.1
20260507160913 17 243 17.7 29.0 0.00 0.00 0.00 59 1013.1
20260507160744 17 250 17.7 29.0 0.00 0.00 0.00 58 1013.1
20260507160648 17 245 17.7 29.0 0.00 0.00 0.00 57 1013.1
20260507160527 17 237 17.7 29.0 0.00 0.00 0.00 57 1013.1
20260507160431 17 240 20.9 29.0 0.00 0.00 0.00 56 1013.0
20260507160323 17 245 20.9 29.0 0.00 0.00 0.00 56 1013.1
20260507160206 17 250 20.9 25.7 0.00 0.00 0.00 56 1013.1
20260507160106 17 252 19.3 25.7 0.00 0.00 0.00 56 1013.1
20260507155948 17 253 17.7 25.7 0.00 0.00 0.00 56 1013.0
20260507155820 17 249 19.3 25.7 0.00 0.00 0.00 56 1013.0
20260507155722 17 251 20.9 25.7 0.00 0.00 0.00 56 1013.0
20260507155622 17 273 17.7 24.1 0.00 0.00 0.00 56 1013.0
20260507155503 17 251 14.5 22.5 0.00 0.00 0.00 56 1013.0
20260507155400 17 243 16.1 22.5 0.00 0.00 0.00 56 1012.9
20260507155241 17 279 16.1 25.7 0.00 0.00 0.00 56 1012.9
20260507155144 17 261 16.1 27.4 0.00 0.00 0.00 56 1012.9
20260507155045 17 264 16.1 27.4 0.00 0.00 0.00 55 1012.9
20260507155018 17 249 16.1 27.4 0.00 0.00 0.00 55 1012.3
20260507154938 17 255 16.1 29.0 0.00 0.00 0.00 56 1012.9
20260507154842 17 251 16.1 29.0 0.00 0.00 0.00 56 1013.0
20260507154749 17 259 17.7 29.0 0.00 0.00 0.00 55 1013.0
20260507154651 17 255 19.3 29.0 0.00 0.00 0.00 55 1013.0
20260507154619 17 251 19.3 29.0 0.00 0.00 0.00 55 1012.3
20260507154521 17 269 20.9 29.0 0.00 0.00 0.00 54 1013.0
20260507154254 17 251 19.3 29.0 0.00 0.00 0.00 54 1013.0
20260507154155 17 256 19.3 29.0 0.00 0.00 0.00 54 1013.0
20260507154131 17 249 19.3 29.0 0.00 0.00 0.00 54 1012.4
20260507154046 17 261 20.9 29.0 0.00 0.00 0.00 54 1013.0
20260507153934 17 258 20.9 29.0 0.00 0.00 0.00 53 1013.0
20260507153839 17 251 20.9 29.0 0.00 0.00 0.00 53 1013.0
20260507153712 17 262 20.9 29.0 0.00 0.00 0.00 53 1013.0
20260507153615 17 276 20.9 29.0 0.00 0.00 0.00 53 1013.0
20260507153516 17 253 22.5 29.0 0.00 0.00 0.00 53 1013.0
20260507153410 17 223 20.9 29.0 0.00 0.00 0.00 53 1013.0
20260507153316 17 257 19.3 29.0 0.00 0.00 0.00 53 1013.0
20260507153218 17 240 20.9 30.6 0.00 0.00 0.00 53 1013.0
20260507153121 17 230 22.5 30.6 0.00 0.00 0.00 52 1013.0
20260507153054 17 261 20.9 30.6 0.00 0.00 0.00 53 1012.4
20260507153013 18 256 20.9 30.6 0.00 0.00 0.00 53 1013.0
20260507152916 18 250 19.3 30.6 0.00 0.00 0.00 53 1013.0
20260507152820 18 255 20.9 30.6 0.00 0.00 0.00 52 1013.0
20260507152723 18 251 20.9 30.6 0.00 0.00 0.00 52 1012.9
20260507152656 17 256 20.9 30.6 0.00 0.00 0.00 52 1012.3
20260507152619 18 255 20.9 30.6 0.00 0.00 0.00 52 1013.0
20260507152520 18 252 20.9 30.6 0.00 0.00 0.00 52 1012.9
20260507152401 18 265 20.9 30.6 0.00 0.00 0.00 52 1012.9
20260507152306 18 258 20.9 29.0 0.00 0.00 0.00 52 1012.9
20260507152153 18 251 20.9 29.0 0.00 0.00 0.00 52 1012.9
20260507152053 18 268 20.9 29.0 0.00 0.00 0.00 52 1012.9
20260507151959 18 270 19.3 29.0 0.00 0.00 0.00 52 1012.9
20260507151901 18 245 22.5 29.0 0.00 0.00 0.00 52 1012.8
20260507151734 18 292 22.5 29.0 0.00 0.00 0.00 52 1012.9
20260507151637 18 252 22.5 33.8 0.00 0.00 0.00 52 1012.9
20260507151539 18 267 22.5 33.8 0.00 0.00 0.00 52 1012.9
20260507151442 18 258 22.5 33.8 0.00 0.00 0.00 52 1012.8
20260507151335 18 263 22.5 33.8 0.00 0.00 0.00 52 1012.8
20260507151241 18 277 22.5 33.8 0.00 0.00 0.00 52 1012.8
20260507151144 18 273 22.5 33.8 0.00 0.00 0.00 52 1012.9
20260507151045 18 257 24.1 33.8 0.00 0.00 0.00 51 1012.9
20260507151021 18 264 22.5 33.8 0.00 0.00 0.00 51 1012.2
20260507150807 18 264 25.7 33.8 0.00 0.00 0.00 51 1012.8
20260507150712 18 275 24.1 30.6 0.00 0.00 0.00 51 1012.7
20260507150624 18 252 20.9 30.6 0.00 0.00 0.00 51 1012.0
20260507150542 18 263 19.3 27.4 0.00 0.00 0.00 51 1012.8
20260507150428 18 251 19.3 27.4 0.00 0.00 0.00 51 1012.7
20260507150330 18 270 20.9 27.4 0.00 0.00 0.00 51 1012.6
20260507150231 18 247 20.9 27.4 0.00 0.00 0.00 50 1012.7
20260507150125 18 267 20.9 27.4 0.00 0.00 0.00 51 1012.7
20260507150025 18 272 20.9 29.0 0.00 0.00 0.00 51 1012.7
20260507145927 18 277 20.9 29.0 0.00 0.00 0.00 50 1012.7
20260507145814 18 263 19.3 29.0 0.00 0.00 0.00 50 1012.6
20260507145645 18 254 19.3 29.0 0.00 0.00 0.00 50 1012.6
20260507145547 18 267 19.3 29.0 0.00 0.00 0.00 50 1012.6
20260507145450 18 252 20.9 29.0 0.00 0.00 0.00 50 1012.5
20260507145331 18 274 20.9 29.0 0.00 0.00 0.00 50 1012.6
20260507145200 18 251 22.5 29.0 0.00 0.00 0.00 49 1012.5
20260507145103 18 270 22.5 29.0 0.00 0.00 0.00 49 1012.5
20260507145008 18 278 20.9 30.6 0.00 0.00 0.00 49 1012.6
20260507144911 18 281 22.5 30.6 0.00 0.00 0.00 49 1012.5
20260507144804 18 267 22.5 30.6 0.00 0.00 0.00 49 1012.6
20260507144705 18 243 20.9 30.6 0.00 0.00 0.00 50 1012.6
20260507144545 18 270 20.9 30.6 0.00 0.00 0.00 49 1012.6
20260507144447 19 265 20.9 30.6 0.00 0.00 0.00 49 1012.7
20260507144345 19 270 22.5 30.6 0.00 0.00 0.00 49 1012.6
20260507144226 19 269 25.7 30.6 0.00 0.00 0.00 48 1012.6
20260507144129 19 268 24.1 32.2 0.00 0.00 0.00 49 1012.6
20260507144030 19 270 20.9 32.2 0.00 0.00 0.00 49 1012.6
20260507144004 19 269 19.3 32.2 0.00 0.00 0.00 49 1011.9
20260507143922 19 261 20.9 37.0 0.00 0.00 0.00 48 1012.5
20260507143804 19 296 24.1 37.0 0.00 0.00 0.00 48 1012.5
20260507143705 20 277 24.1 37.0 0.00 0.00 0.00 48 1012.6
20260507143611 20 261 24.1 37.0 0.00 0.00 0.00 47 1012.5
20260507143545 19 272 24.1 37.0 0.00 0.00 0.00 47 1011.8
20260507143502 20 247 25.7 37.0 0.00 0.00 0.00 47 1012.6
20260507143404 20 263 24.1 37.0 0.00 0.00 0.00 46 1012.5
20260507143244 20 273 24.1 37.0 0.00 0.00 0.00 46 1012.4
20260507143150 20 259 24.1 37.0 0.00 0.00 0.00 46 1011.7
20260507143116 20 278 25.7 37.0 0.00 0.00 0.00 46 1012.5
20260507143017 20 253 27.4 37.0 0.00 0.00 0.00 46 1012.4
20260507142902 21 264 27.4 37.0 0.00 0.00 0.00 46 1012.4
20260507142804 21 253 25.7 37.0 0.00 0.00 0.00 47 1012.3
20260507142637 20 268 25.7 37.0 0.00 0.00 0.00 47 1012.3
20260507142539 20 259 25.7 37.0 0.00 0.00 0.00 47 1012.3
20260507142443 20 265 27.4 33.8 0.00 0.00 0.00 46 1012.3
20260507142325 20 265 27.4 33.8 0.00 0.00 0.00 46 1012.3
20260507142217 20 251 25.7 33.8 0.00 0.00 0.00 46 1012.2
20260507142124 20 238 27.4 33.8 0.00 0.00 0.00 45 1012.2
20260507142024 21 266 25.7 33.8 0.00 0.00 0.00 45 1012.3
20260507141925 21 280 24.1 33.8 0.00 0.00 0.00 45 1012.2
20260507141818 21 266 25.7 33.8 0.00 0.00 0.00 45 1012.2
20260507141701 21 269 24.1 32.2 0.00 0.00 0.00 46 1012.2
20260507141559 21 280 20.9 32.2 0.00 0.00 0.00 47 1012.2
20260507141506 20 230 20.9 32.2 0.00 0.00 0.00 47 1012.3
20260507141339 20 240 24.1 32.2 0.00 0.00 0.00 46 1012.2
20260507141240 20 262 22.5 32.2 0.00 0.00 0.00 47 1012.3
20260507141142 20 232 19.3 25.7 0.00 0.00 0.00 46 1012.2
20260507141044 20 255 16.1 25.7 0.00 0.00 0.00 46 1012.3
20260507141018 20 276 14.5 25.7 0.00 0.00 0.00 46 1011.5
20260507140939 20 274 12.9 25.7 0.00 0.00 0.00 47 1012.3
20260507140820 20 265 12.9 25.7 0.00 0.00 0.00 46 1012.3
20260507140724 20 247 14.5 25.7 0.00 0.00 0.00 45 1012.3
20260507140606 20 266 16.1 25.7 0.00 0.00 0.00 45 1012.2
20260507140537 20 273 14.5 25.7 0.00 0.00 0.00 45 1011.5
20260507140458 21 255 16.1 25.7 0.00 0.00 0.00 45 1012.2
20260507140400 21 313 17.7 25.7 0.00 0.00 0.00 45 1012.2
20260507140303 21 226 14.5 25.7 0.00 0.00 0.00 46 1012.2
20260507140144 21 268 14.5 25.7 0.00 0.00 0.00 44 1012.2
20260507140054 21 264 14.5 25.7 0.00 0.00 0.00 44 1011.4
20260507140017 21 292 16.1 25.7 0.00 0.00 0.00 44 1012.2
20260507135920 21 266 17.7 25.7 0.00 0.00 0.00 45 1012.2
20260507135802 21 251 16.1 25.7 0.00 0.00 0.00 46 1012.2
20260507135643 21 272 17.7 25.7 0.00 0.00 0.00 45 1012.2
20260507135555 21 291 17.7 25.7 0.00 0.00 0.00 45 1011.3
20260507135515 21 278 20.9 25.7 0.00 0.00 0.00 44 1012.1
20260507135418 21 274 19.3 25.7 0.00 0.00 0.00 45 1012.2
20260507135321 21 260 17.7 27.4 0.00 0.00 0.00 43 1012.1
20260507135226 21 271 17.7 27.4 0.00 0.00 0.00 44 1012.2
20260507135157 21 270 16.1 27.4 0.00 0.00 0.00 44 1011.4
20260507135121 21 280 17.7 27.4 0.00 0.00 0.00 45 1012.2
20260507135021 21 275 16.1 27.4 0.00 0.00 0.00 45 1012.1
20260507134922 21 288 16.1 27.4 0.00 0.00 0.00 45 1012.2
20260507134803 21 270 14.5 27.4 0.00 0.00 0.00 46 1012.1
20260507134657 21 257 17.7 27.4 0.00 0.00 0.00 46 1012.1
20260507134600 21 279 19.3 27.4 0.00 0.00 0.00 49 1012.1
20260507134324 20 253 16.1 24.1 0.00 0.00 0.00 50 1012.1
20260507134225 20 255 16.1 25.7 0.00 0.00 0.00 49 1012.1
20260507134127 20 272 17.7 30.6 0.00 0.00 0.00 49 1012.1
20260507134007 20 270 17.7 30.6 0.00 0.00 0.00 49 1012.2
20260507133838 20 231 16.1 30.6 0.00 0.00 0.00 49 1012.2
20260507133744 20 263 17.7 30.6 0.00 0.00 0.00 47 1012.1
20260507133648 20 267 20.9 30.6 0.00 0.00 0.00 47 1012.1
20260507133549 20 266 20.9 30.6 0.00 0.00 0.00 47 1012.2
20260507133520 19 269 19.3 30.6 0.00 0.00 0.00 47 1011.4
20260507133443 20 270 22.5 30.6 0.00 0.00 0.00 47 1012.3
20260507133324 20 268 24.1 30.6 0.00 0.00 0.00 47 1012.2
20260507133224 20 259 25.7 30.6 0.00 0.00 0.00 48 1012.2
20260507133149 20 265 25.7 30.6 0.00 0.00 0.00 47 1011.4
20260507133127 20 265 25.7 30.6 0.00 0.00 0.00 47 1012.2
20260507133024 20 272 22.5 30.6 0.00 0.00 0.00 48 1012.2
20260507132926 20 259 19.3 30.6 0.00 0.00 0.00 48 1012.2
20260507132829 20 263 17.7 29.0 0.00 0.00 0.00 48 1012.2
20260507132730 20 270 19.3 29.0 0.00 0.00 0.00 47 1012.3
20260507132625 20 280 19.3 29.0 0.00 0.00 0.00 47 1012.2
20260507132525 20 254 19.3 29.0 0.00 0.00 0.00 47 1012.2
20260507132432 20 261 16.1 30.6 0.00 0.00 0.00 47 1012.3
20260507132252 20 270 14.5 32.2 0.00 0.00 0.00 48 1012.3
20260507132145 20 263 14.5 32.2 0.00 0.00 0.00 48 1012.3
20260507132046 20 261 17.7 32.2 0.00 0.00 0.00 48 1012.3
20260507131950 20 259 22.5 32.2 0.00 0.00 0.00 47 1012.3
20260507131844 20 273 24.1 32.2 0.00 0.00 0.00 47 1012.4
20260507131726 20 251 25.7 32.2 0.00 0.00 0.00 47 1012.4
20260507131610 20 265 25.7 32.2 0.00 0.00 0.00 46 1012.3
20260507131450 21 288 22.5 32.2 0.00 0.00 0.00 47 1012.3
20260507131333 21 285 22.5 32.2 0.00 0.00 0.00 47 1012.4
20260507131226 21 274 22.5 32.2 0.00 0.00 0.00 46 1012.3
20260507131107 21 244 12.9 32.2 0.00 0.00 0.00 45 1012.4
20260507130947 21 256 14.5 32.2 0.00 0.00 0.00 46 1012.4
20260507130852 21 242 20.9 32.2 0.00 0.00 0.00 45 1012.4
20260507130724 21 251 22.5 32.2 0.00 0.00 0.00 45 1012.4
20260507130627 21 245 20.9 32.2 0.00 0.00 0.00 45 1012.4
20260507130527 21 269 20.9 32.2 0.00 0.00 0.00 45 1012.4
20260507130421 21 279 17.7 29.0 0.00 0.00 0.00 46 1012.4
20260507130324 21 245 14.5 33.8 0.00 0.00 0.00 44 1012.4
20260507130225 21 263 16.1 33.8 0.00 0.00 0.00 44 1012.4
20260507130131 21 264 19.3 33.8 0.00 0.00 0.00 45 1012.4
20260507130107 21 277 20.9 33.8 0.00 0.00 0.00 45 1011.6
20260507130022 21 268 24.1 33.8 0.00 0.00 0.00 45 1012.4
20260507125923 21 257 25.7 33.8 0.00 0.00 0.00 45 1012.5
20260507125827 21 258 25.7 33.8 0.00 0.00 0.00 45 1012.5
20260507125728 21 269 22.5 33.8 0.00 0.00 0.00 46 1012.4
20260507125623 21 236 24.1 33.8 0.00 0.00 0.00 46 1012.4
20260507125359 21 261 19.3 33.8 0.00 0.00 0.00 47 1012.4
20260507125301 21 265 19.3 33.8 0.00 0.00 0.00 45 1012.4
20260507125151 21 271 20.9 33.8 0.00 0.00 0.00 45 1012.4
20260507125050 21 279 19.3 33.8 0.00 0.00 0.00 46 1012.4
20260507124953 21 248 19.3 33.8 0.00 0.00 0.00 46 1012.3
20260507124856 21 249 20.9 33.8 0.00 0.00 0.00 46 1012.4
20260507124754 21 265 20.9 33.8 0.00 0.00 0.00 46 1012.4
20260507124657 21 258 20.9 33.8 0.00 0.00 0.00 45 1012.3
20260507124558 21 226 19.3 33.8 0.00 0.00 0.00 46 1012.4
20260507124500 21 244 17.7 33.8 0.00 0.00 0.00 46 1012.4
20260507124355 21 265 12.9 30.6 0.00 0.00 0.00 45 1012.4
20260507124236 21 272 12.9 32.2 0.00 0.00 0.00 45 1012.4
20260507124140 21 243 16.1 32.2 0.00 0.00 0.00 45 1012.4
20260507124024 21 255 20.9 32.2 0.00 0.00 0.00 45 1012.4
20260507123917 21 265 17.7 32.2 0.00 0.00 0.00 46 1012.4
20260507123819 21 272 17.7 32.2 0.00 0.00 0.00 46 1012.4
20260507123722 21 246 20.9 32.2 0.00 0.00 0.00 45 1012.4
20260507123623 21 245 22.5 32.2 0.00 0.00 0.00 46 1012.4
20260507123555 21 221 22.5 32.2 0.00 0.00 0.00 46 1011.7
20260507123513 21 229 22.5 32.2 0.00 0.00 0.00 47 1012.4
20260507123359 21 242 17.7 25.7 0.00 0.00 0.00 48 1012.4
20260507123240 21 246 16.1 25.7 0.00 0.00 0.00 49 1012.4
20260507123143 21 262 17.7 25.7 0.00 0.00 0.00 47 1012.4
20260507123116 20 224 16.1 25.7 0.00 0.00 0.00 47 1011.6
20260507123036 21 271 16.1 25.7 0.00 0.00 0.00 47 1012.4
20260507122938 21 272 12.9 20.9 0.00 0.00 0.00 50 1012.4
20260507122821 20 312 12.9 24.1 0.00 0.00 0.00 49 1012.4
20260507122638 20 265 14.5 24.1 0.00 0.00 0.00 49 1012.4
20260507122539 20 290 14.5 24.1 0.00 0.00 0.00 48 1012.4
20260507122442 20 301 14.5 24.1 0.00 0.00 0.00 47 1012.4
20260507122335 20 295 14.5 24.1 0.00 0.00 0.00 49 1012.5
20260507122236 20 265 14.5 24.1 0.00 0.00 0.00 48 1012.4
20260507122137 20 263 12.9 25.7 0.00 0.00 0.00 48 1012.4
20260507122039 20 290 14.5 29.0 0.00 0.00 0.00 48 1012.5
20260507122014 20 293 16.1 29.0 0.00 0.00 0.00 48 1011.7
20260507121936 20 227 17.7 29.0 0.00 0.00 0.00 48 1012.5
20260507121839 20 260 14.5 29.0 0.00 0.00 0.00 48 1012.5
20260507121721 20 285 11.3 29.0 0.00 0.00 0.00 47 1012.5
20260507121625 20 285 12.9 29.0 0.00 0.00 0.00 47 1012.6
20260507121534 20 306 14.5 29.0 0.00 0.00 0.00 47 1011.7
20260507121454 20 313 16.1 29.0 0.00 0.00 0.00 47 1012.5
20260507121357 20 292 19.3 29.0 0.00 0.00 0.00 47 1012.5
20260507121302 20 301 19.3 30.6 0.00 0.00 0.00 46 1012.5
20260507121204 20 271 19.3 30.6 0.00 0.00 0.00 48 1012.5
20260507121133 20 266 14.5 30.6 0.00 0.00 0.00 48 1011.8
20260507121055 20 268 12.9 32.2 0.00 0.00 0.00 49 1012.5
20260507120958 20 269 12.9 32.2 0.00 0.00 0.00 48 1012.5
20260507120900 20 236 17.7 32.2 0.00 0.00 0.00 48 1012.5
20260507120734 20 239 22.5 32.2 0.00 0.00 0.00 48 1012.7
20260507120640 20 271 25.7 32.2 0.00 0.00 0.00 47 1012.6
20260507120540 20 287 25.7 32.2 0.00 0.00 0.00 48 1012.5
20260507120444 20 266 27.4 32.2 0.00 0.00 0.00 48 1012.6
20260507120336 20 219 24.1 37.0 0.00 0.00 0.00 48 1012.5
20260507120237 20 244 19.3 37.0 0.00 0.00 0.00 48 1012.6
20260507120138 20 286 16.1 37.0 0.00 0.00 0.00 49 1012.6
20260507120040 20 267 19.3 37.0 0.00 0.00 0.00 48 1012.6
20260507120018 20 265 19.3 37.0 0.00 0.00 0.00 48 1011.9
20260507115936 20 296 20.9 37.0 0.00 0.00 0.00 48 1012.7
20260507115838 20 255 22.5 37.0 0.00 0.00 0.00 48 1012.7
20260507115738 20 250 24.1 37.0 0.00 0.00 0.00 48 1012.6
20260507115621 20 265 29.0 37.0 0.00 0.00 0.00 48 1012.7
20260507115553 20 261 29.0 37.0 0.00 0.00 0.00 48 1011.8
20260507115512 20 274 29.0 37.0 0.00 0.00 0.00 47 1012.6
20260507115415 20 282 25.7 33.8 0.00 0.00 0.00 48 1012.6
20260507115322 20 265 20.9 33.8 0.00 0.00 0.00 47 1012.6
20260507115224 20 268 20.9 33.8 0.00 0.00 0.00 47 1012.6
20260507115157 20 276 20.9 33.8 0.00 0.00 0.00 47 1011.8
20260507115114 20 271 19.3 33.8 0.00 0.00 0.00 48 1012.5
20260507114956 20 304 14.5 33.8 0.00 0.00 0.00 47 1012.6
20260507114858 20 252 17.7 33.8 0.00 0.00 0.00 47 1012.6
20260507114732 20 273 24.1 33.8 0.00 0.00 0.00 47 1012.7
20260507114639 20 260 22.5 33.8 0.00 0.00 0.00 47 1012.7
20260507114401 20 277 20.9 33.8 0.00 0.00 0.00 47 1012.7
20260507114304 20 260 24.1 33.8 0.00 0.00 0.00 47 1012.7
20260507114205 20 253 24.1 33.8 0.00 0.00 0.00 47 1012.8
20260507114106 20 246 25.7 33.8 0.00 0.00 0.00 47 1012.7
20260507114038 20 255 27.4 33.8 0.00 0.00 0.00 48 1012.0
20260507113956 20 262 24.1 33.8 0.00 0.00 0.00 49 1012.8
20260507113841 20 281 19.3 32.2 0.00 0.00 0.00 49 1012.6
20260507113722 20 268 19.3 32.2 0.00 0.00 0.00 48 1012.7
20260507113626 20 285 22.5 32.2 0.00 0.00 0.00 47 1012.7
20260507113556 20 268 20.9 32.2 0.00 0.00 0.00 47 1011.9
20260507113517 20 269 22.5 32.2 0.00 0.00 0.00 49 1012.7
20260507113420 20 273 17.7 32.2 0.00 0.00 0.00 48 1012.7
20260507113322 20 276 20.9 32.2 0.00 0.00 0.00 48 1012.7
20260507113152 20 255 20.9 32.2 0.00 0.00 0.00 48 1012.7
20260507113055 20 267 20.9 32.2 0.00 0.00 0.00 48 1012.7
20260507112937 20 270 20.9 32.2 0.00 0.00 0.00 48 1012.7
20260507112821 20 239 22.5 32.2 0.00 0.00 0.00 48 1012.7
20260507112651 20 257 24.1 33.8 0.00 0.00 0.00 47 1012.7
20260507112552 20 257 25.7 33.8 0.00 0.00 0.00 48 1012.7
20260507112433 20 249 19.3 33.8 0.00 0.00 0.00 49 1012.7
20260507112331 20 230 14.5 33.8 0.00 0.00 0.00 49 1012.6
20260507112211 20 240 17.7 33.8 0.00 0.00 0.00 49 1012.7
20260507112110 20 251 24.1 33.8 0.00 0.00 0.00 48 1012.8
20260507111953 20 243 24.1 33.8 0.00 0.00 0.00 48 1012.8
20260507111846 20 253 24.1 33.8 0.00 0.00 0.00 48 1012.8
20260507111749 20 264 25.7 33.8 0.00 0.00 0.00 49 1012.8
20260507111657 20 269 27.4 33.8 0.00 0.00 0.00 49 1012.8
20260507111536 20 261 27.4 33.8 0.00 0.00 0.00 49 1012.9
20260507111510 19 266 25.7 32.2 0.00 0.00 0.00 49 1012.1
20260507111429 19 268 24.1 30.6 0.00 0.00 0.00 50 1012.7
20260507111331 19 276 24.1 32.2 0.00 0.00 0.00 49 1012.7
20260507111108 19 269 14.5 32.2 0.00 0.00 0.00 50 1012.0
20260507111033 19 255 12.9 32.2 0.00 0.00 0.00 49 1012.8
20260507110936 19 268 17.7 32.2 0.00 0.00 0.00 48 1012.9
20260507110844 19 257 22.5 33.8 0.00 0.00 0.00 49 1012.9
20260507110747 19 263 24.1 33.8 0.00 0.00 0.00 50 1013.0
20260507110651 19 283 24.1 33.8 0.00 0.00 0.00 50 1013.0
20260507110623 19 275 24.1 33.8 0.00 0.00 0.00 49 1012.2
20260507110542 19 269 24.1 33.8 0.00 0.00 0.00 49 1012.9
20260507110444 19 274 22.5 33.8 0.00 0.00 0.00 49 1012.9
20260507110347 19 292 20.9 33.8 0.00 0.00 0.00 49 1013.0
20260507110251 19 264 19.3 33.8 0.00 0.00 0.00 48 1012.9
20260507110126 20 284 22.5 37.0 0.00 0.00 0.00 48 1013.0
20260507110004 20 308 22.5 37.0 0.00 0.00 0.00 49 1012.9
20260507105908 20 311 25.7 37.0 0.00 0.00 0.00 49 1013.0
20260507105811 20 267 25.7 37.0 0.00 0.00 0.00 51 1013.0
20260507105645 20 274 19.3 37.0 0.00 0.00 0.00 50 1012.9
20260507105416 20 269 24.1 37.0 0.00 0.00 0.00 49 1013.0
20260507105324 20 292 22.5 37.0 0.00 0.00 0.00 49 1013.0
20260507105215 20 275 22.5 33.8 0.00 0.00 0.00 50 1013.1
20260507105053 19 255 22.5 33.8 0.00 0.00 0.00 50 1013.2
20260507104957 19 222 19.3 30.6 0.00 0.00 0.00 51 1013.3
20260507104830 19 253 20.9 30.6 0.00 0.00 0.00 50 1013.2
20260507104711 19 276 22.5 30.6 0.00 0.00 0.00 50 1013.2
20260507104619 19 263 20.9 29.0 0.00 0.00 0.00 49 1013.1
20260507104519 19 243 19.3 29.0 0.00 0.00 0.00 51 1013.2
20260507104352 19 254 19.3 29.0 0.00 0.00 0.00 52 1013.3
20260507104254 19 244 17.7 29.0 0.00 0.00 0.00 51 1013.3
20260507104135 19 250 19.3 29.0 0.00 0.00 0.00 51 1013.3
20260507104036 19 276 22.5 29.0 0.00 0.00 0.00 50 1013.3
20260507104009 18 259 20.9 29.0 0.00 0.00 0.00 50 1012.5
20260507103930 19 299 22.5 29.0 0.00 0.00 0.00 52 1013.3
20260507103838 19 273 20.9 29.0 0.00 0.00 0.00 51 1013.3
20260507103720 19 263 20.9 29.0 0.00 0.00 0.00 50 1013.3
20260507103623 19 268 20.9 32.2 0.00 0.00 0.00 50 1013.2
20260507103552 18 270 19.3 32.2 0.00 0.00 0.00 50 1012.4
20260507103515 19 269 19.3 32.2 0.00 0.00 0.00 49 1013.3
20260507103419 19 270 19.3 32.2 0.00 0.00 0.00 49 1013.3
20260507103323 19 263 20.9 33.8 0.00 0.00 0.00 50 1013.3
20260507103228 19 267 19.3 37.0 0.00 0.00 0.00 52 1013.3
20260507103135 18 262 17.7 37.0 0.00 0.00 0.00 52 1012.5
20260507103058 19 261 17.7 37.0 0.00 0.00 0.00 52 1013.4
20260507103001 19 246 19.3 37.0 0.00 0.00 0.00 52 1013.4
20260507102903 18 266 22.5 37.0 0.00 0.00 0.00 52 1013.3
20260507102805 18 272 24.1 40.2 0.00 0.00 0.00 52 1013.3
20260507102659 18 283 25.7 40.2 0.00 0.00 0.00 51 1013.3
20260507102539 18 259 25.7 40.2 0.00 0.00 0.00 50 1013.4
20260507102445 18 256 24.1 40.2 0.00 0.00 0.00 53 1013.4
20260507102307 18 256 24.1 40.2 0.00 0.00 0.00 52 1013.5
20260507102158 18 253 27.4 40.2 0.00 0.00 0.00 53 1013.4
20260507102037 18 251 25.7 40.2 0.00 0.00 0.00 52 1013.5
20260507101916 18 242 22.5 35.4 0.00 0.00 0.00 52 1013.5
20260507101818 18 238 22.5 35.4 0.00 0.00 0.00 52 1013.5
20260507101716 18 272 25.7 40.2 0.00 0.00 0.00 52 1013.5
20260507101620 18 279 24.1 40.2 0.00 0.00 0.00 52 1013.5
20260507101522 18 240 24.1 40.2 0.00 0.00 0.00 52 1013.5
20260507101424 18 261 24.1 40.2 0.00 0.00 0.00 51 1013.5
20260507101318 18 274 22.5 40.2 0.00 0.00 0.00 52 1013.5
20260507101158 18 253 25.7 40.2 0.00 0.00 0.00 52 1013.6
20260507101038 18 264 27.4 40.2 0.00 0.00 0.00 51 1013.6
20260507100946 18 274 29.0 40.2 0.00 0.00 0.00 52 1013.6
20260507100818 18 259 24.1 35.4 0.00 0.00 0.00 53 1013.6
20260507100719 18 253 25.7 35.4 0.00 0.00 0.00 53 1013.5
20260507100603 18 251 24.1 38.6 0.00 0.00 0.00 53 1013.5
20260507100503 18 242 25.7 38.6 0.00 0.00 0.00 53 1013.6
20260507100332 18 265 25.7 38.6 0.00 0.00 0.00 54 1013.5
20260507100238 18 238 22.5 41.8 0.00 0.00 0.00 52 1013.5
20260507100118 18 247 24.1 41.8 0.00 0.00 0.00 53 1013.5
20260507100000 18 253 24.1 41.8 0.00 0.00 0.00 53 1013.5
20260507095834 18 243 27.4 41.8 0.00 0.00 0.00 54 1013.5
20260507095737 18 260 25.7 41.8 0.00 0.00 0.00 54 1013.6
20260507095640 18 279 29.0 41.8 0.00 0.00 0.00 54 1013.5
20260507095552 18 253 29.0 41.8 0.00 0.00 0.00 54 1012.8
20260507095515 18 265 29.0 41.8 0.00 0.00 0.00 53 1013.6
20260507095415 18 269 25.7 37.0 0.00 0.00 0.00 53 1013.5
20260507095318 18 257 25.7 37.0 0.00 0.00 0.00 52 1013.5
20260507095220 18 280 27.4 37.0 0.00 0.00 0.00 54 1013.5
20260507095150 18 276 25.7 37.0 0.00 0.00 0.00 54 1012.6
20260507095111 18 282 27.4 37.0 0.00 0.00 0.00 55 1013.4
20260507094933 18 273 27.4 33.8 0.00 0.00 0.00 56 1013.4
20260507094703 17 271 22.5 32.2 0.00 0.00 0.00 57 1013.5
20260507094601 17 270 20.9 30.6 0.00 0.00 0.00 58 1013.4
20260507094443 17 268 19.3 33.8 0.00 0.00 0.00 57 1013.4
20260507094337 17 269 16.1 33.8 0.00 0.00 0.00 57 1013.4
20260507094239 17 285 17.7 33.8 0.00 0.00 0.00 56 1013.4
20260507094140 17 263 20.9 33.8 0.00 0.00 0.00 56 1013.5
20260507094045 17 257 24.1 33.8 0.00 0.00 0.00 55 1013.4
20260507093918 17 279 24.1 33.8 0.00 0.00 0.00 56 1013.5
20260507093821 17 274 24.1 33.8 0.00 0.00 0.00 57 1013.5
20260507093703 17 268 22.5 33.8 0.00 0.00 0.00 57 1013.5
20260507093603 17 282 19.3 33.8 0.00 0.00 0.00 57 1013.4
20260507093535 17 277 19.3 33.8 0.00 0.00 0.00 57 1012.7
20260507093455 17 279 20.9 33.8 0.00 0.00 0.00 58 1013.5
20260507093338 17 250 24.1 35.4 0.00 0.00 0.00 57 1013.5
20260507093222 17 245 25.7 35.4 0.00 0.00 0.00 56 1013.5
20260507093125 17 247 25.7 35.4 0.00 0.00 0.00 57 1013.5
20260507093054 17 257 22.5 35.4 0.00 0.00 0.00 57 1012.7
20260507093016 17 255 22.5 35.4 0.00 0.00 0.00 56 1013.6
20260507092917 17 264 22.5 35.4 0.00 0.00 0.00 57 1013.5
20260507092821 17 249 25.7 35.4 0.00 0.00 0.00 56 1013.6
20260507092703 17 246 27.4 35.4 0.00 0.00 0.00 55 1013.6
20260507092635 17 245 27.4 35.4 0.00 0.00 0.00 55 1012.7
20260507092556 17 274 24.1 38.6 0.00 0.00 0.00 55 1013.6
20260507092438 17 290 22.5 38.6 0.00 0.00 0.00 55 1013.5
20260507092341 17 267 22.5 38.6 0.00 0.00 0.00 55 1013.5
20260507092242 18 262 24.1 38.6 0.00 0.00 0.00 56 1013.5
20260507092137 18 285 24.1 38.6 0.00 0.00 0.00 54 1013.5
20260507092037 18 276 22.5 38.6 0.00 0.00 0.00 56 1013.5
20260507091940 17 263 25.7 38.6 0.00 0.00 0.00 56 1013.5
20260507091847 17 267 27.4 38.6 0.00 0.00 0.00 57 1013.6
20260507091741 17 268 27.4 35.4 0.00 0.00 0.00 57 1013.5
20260507091621 17 247 24.1 35.4 0.00 0.00 0.00 58 1013.5
20260507091523 17 269 20.9 30.6 0.00 0.00 0.00 58 1013.5
20260507091427 17 263 20.9 32.2 0.00 0.00 0.00 58 1013.6
20260507091259 17 251 20.9 32.2 0.00 0.00 0.00 58 1013.5
20260507091204 17 268 22.5 32.2 0.00 0.00 0.00 57 1013.5
20260507091103 17 276 22.5 32.2 0.00 0.00 0.00 57 1013.6
20260507090946 17 280 20.9 33.8 0.00 0.00 0.00 57 1013.5
20260507090849 17 274 20.9 33.8 0.00 0.00 0.00 57 1013.5
20260507090743 17 273 20.9 33.8 0.00 0.00 0.00 58 1013.5
20260507090645 17 265 22.5 33.8 0.00 0.00 0.00 57 1013.5
20260507090546 17 240 20.9 33.8 0.00 0.00 0.00 57 1013.5
20260507090520 17 259 19.3 33.8 0.00 0.00 0.00 57 1012.7
20260507090443 17 287 20.9 33.8 0.00 0.00 0.00 57 1013.4
20260507090325 17 269 27.4 33.8 0.00 0.00 0.00 58 1013.5
20260507090227 17 276 24.1 33.8 0.00 0.00 0.00 59 1013.5
20260507090129 17 270 20.9 32.2 0.00 0.00 0.00 59 1013.5
20260507090105 17 282 19.3 32.2 0.00 0.00 0.00 59 1012.6
20260507090020 17 273 20.9 32.2 0.00 0.00 0.00 59 1013.5
20260507085922 17 276 22.5 32.2 0.00 0.00 0.00 59 1013.4
20260507085829 17 282 24.1 32.2 0.00 0.00 0.00 59 1013.3
20260507085731 17 269 24.1 32.2 0.00 0.00 0.00 59 1013.4
20260507085627 17 272 24.1 32.2 0.00 0.00 0.00 57 1013.5
20260507085444 17 272 20.9 32.2 0.00 0.00 0.00 58 1013.4
20260507085348 17 259 22.5 30.6 0.00 0.00 0.00 57 1013.4
20260507085250 17 286 24.1 30.6 0.00 0.00 0.00 59 1013.5
20260507085143 17 250 24.1 30.6 0.00 0.00 0.00 59 1013.5
20260507085047 17 253 22.5 33.8 0.00 0.00 0.00 60 1013.5
20260507084948 17 264 22.5 41.8 0.00 0.00 0.00 59 1013.4
20260507084851 17 275 24.1 41.8 0.00 0.00 0.00 59 1013.4
20260507084702 17 262 22.5 41.8 0.00 0.00 0.00 59 1013.5
20260507084559 17 277 22.5 41.8 0.00 0.00 0.00 59 1013.4
20260507084501 17 231 24.1 41.8 0.00 0.00 0.00 59 1013.4
20260507084408 17 275 25.7 41.8 0.00 0.00 0.00 59 1013.5
20260507084301 17 259 30.6 41.8 0.00 0.00 0.00 59 1013.5
20260507084200 16 253 30.6 41.8 0.00 0.00 0.00 59 1013.5
20260507084100 16 257 30.6 41.8 0.00 0.00 0.00 59 1013.4
20260507084026 16 267 30.6 37.0 0.00 0.00 0.00 58 1012.6
20260507083953 16 260 30.6 38.6 0.00 0.00 0.00 58 1013.4
20260507083854 16 276 27.4 35.4 0.00 0.00 0.00 60 1013.4
20260507083756 16 267 25.7 35.4 0.00 0.00 0.00 60 1013.4
20260507083703 16 281 24.1 35.4 0.00 0.00 0.00 60 1013.4
20260507083630 16 268 22.5 35.4 0.00 0.00 0.00 60 1012.6
20260507083555 16 261 24.1 35.4 0.00 0.00 0.00 60 1013.5
20260507083458 16 281 25.7 35.4 0.00 0.00 0.00 60 1013.4
20260507083401 16 270 29.0 35.4 0.00 0.00 0.00 60 1013.5
20260507083302 16 269 27.4 35.4 0.00 0.00 0.00 59 1013.5
20260507083154 16 240 24.1 33.8 0.00 0.00 0.00 60 1013.4
20260507083059 16 273 25.7 33.8 0.00 0.00 0.00 60 1013.5
20260507083002 16 251 27.4 33.8 0.00 0.00 0.00 61 1013.5
20260507082844 16 271 20.9 40.2 0.00 0.00 0.00 62 1013.5
20260507082717 16 237 22.5 40.2 0.00 0.00 0.00 61 1013.4
20260507082618 16 286 22.5 40.2 0.00 0.00 0.00 61 1013.4
20260507082459 16 276 24.1 40.2 0.00 0.00 0.00 62 1013.4
20260507082403 16 255 24.1 40.2 0.00 0.00 0.00 60 1013.4
20260507082258 16 281 25.7 40.2 0.00 0.00 0.00 61 1013.4
20260507082159 16 253 30.6 40.2 0.00 0.00 0.00 60 1013.4
20260507082104 16 280 30.6 40.2 0.00 0.00 0.00 60 1013.4
20260507082004 16 255 25.7 35.4 0.00 0.00 0.00 61 1013.3
20260507081838 16 248 20.9 25.7 0.00 0.00 0.00 62 1013.3
20260507081741 16 266 19.3 29.0 0.00 0.00 0.00 63 1013.4
20260507081647 16 272 20.9 29.0 0.00 0.00 0.00 62 1013.3
20260507081528 16 280 22.5 30.6 0.00 0.00 0.00 61 1013.3
20260507081502 15 253 22.5 30.6 0.00 0.00 0.00 61 1012.4
20260507081421 16 259 22.5 30.6 0.00 0.00 0.00 62 1013.4
20260507081324 16 269 22.5 30.6 0.00 0.00 0.00 62 1013.3
20260507081226 16 272 22.5 30.6 0.00 0.00 0.00 61 1013.3
20260507081130 16 251 20.9 30.6 0.00 0.00 0.00 62 1013.2
20260507081109 15 254 20.9 30.6 0.00 0.00 0.00 61 1012.4
20260507080959 16 272 22.5 30.6 0.00 0.00 0.00 61 1013.2
20260507080905 16 257 24.1 32.2 0.00 0.00 0.00 60 1013.2
20260507080809 16 286 24.1 32.2 0.00 0.00 0.00 61 1013.2
20260507080710 16 274 24.1 32.2 0.00 0.00 0.00 61 1013.2
20260507080648 16 283 24.1 32.2 0.00 0.00 0.00 61 1012.3
20260507080605 16 259 24.1 32.2 0.00 0.00 0.00 61 1013.1
20260507080443 16 268 19.3 32.2 0.00 0.00 0.00 61 1013.1
20260507080347 16 272 20.9 32.2 0.00 0.00 0.00 62 1013.1
20260507080255 16 269 24.1 32.2 0.00 0.00 0.00 62 1013.1
20260507080127 16 261 25.7 32.2 0.00 0.00 0.00 62 1013.1
20260507080029 16 251 24.1 33.8 0.00 0.00 0.00 62 1013.1
20260507075931 16 256 22.5 33.8 0.00 0.00 0.00 62 1013.1
20260507075813 16 262 24.1 33.8 0.00 0.00 0.00 62 1013.0
20260507075645 16 257 24.1 33.8 0.00 0.00 0.00 62 1013.0
20260507075546 16 256 24.1 33.8 0.00 0.00 0.00 62 1013.0
20260507075453 16 252 22.5 33.8 0.00 0.00 0.00 62 1013.0
20260507075335 16 277 24.1 33.8 0.00 0.00 0.00 62 1013.0
20260507075229 16 266 24.1 33.8 0.00 0.00 0.00 63 1013.0
20260507075131 16 248 19.3 30.6 0.00 0.00 0.00 63 1012.9
20260507075011 16 269 17.7 30.6 0.00 0.00 0.00 64 1012.9
20260507074914 16 257 16.1 30.6 0.00 0.00 0.00 64 1013.0
20260507074811 16 275 20.9 30.6 0.00 0.00 0.00 63 1013.0
20260507074650 16 261 19.3 30.6 0.00 0.00 0.00 65 1013.0
20260507074552 16 251 19.3 30.6 0.00 0.00 0.00 66 1013.0
20260507074455 16 249 17.7 30.6 0.00 0.00 0.00 66 1013.1
20260507074328 15 263 16.1 30.6 0.00 0.00 0.00 66 1013.1
20260507074230 15 268 19.3 30.6 0.00 0.00 0.00 65 1013.1
20260507074111 15 257 20.9 30.6 0.00 0.00 0.00 65 1013.1
20260507074016 15 247 19.3 30.6 0.00 0.00 0.00 66 1013.1
20260507073848 15 251 22.5 30.6 0.00 0.00 0.00 66 1013.1
20260507073729 15 266 22.5 30.6 0.00 0.00 0.00 67 1013.1
20260507073610 15 253 20.9 27.4 0.00 0.00 0.00 67 1013.1
20260507073511 15 264 20.9 27.4 0.00 0.00 0.00 66 1013.0
20260507073405 15 255 20.9 27.4 0.00 0.00 0.00 67 1013.0
20260507073229 15 251 20.9 27.4 0.00 0.00 0.00 67 1013.0
20260507073132 15 272 20.9 27.4 0.00 0.00 0.00 67 1013.1
20260507073031 15 280 22.5 27.4 0.00 0.00 0.00 67 1013.0
20260507072913 15 268 22.5 27.4 0.00 0.00 0.00 67 1013.1
20260507072807 15 266 20.9 27.4 0.00 0.00 0.00 67 1013.0
20260507072709 15 272 17.7 27.4 0.00 0.00 0.00 68 1013.1
20260507072612 15 278 17.7 27.4 0.00 0.00 0.00 68 1013.0
20260507072516 15 271 19.3 27.4 0.00 0.00 0.00 68 1013.0
20260507072411 15 261 19.3 27.4 0.00 0.00 0.00 68 1013.0
20260507072315 15 243 19.3 25.7 0.00 0.00 0.00 68 1012.9
20260507072215 15 256 19.3 25.7 0.00 0.00 0.00 69 1012.9
20260507072119 15 257 19.3 25.7 0.00 0.00 0.00 69 1013.0
20260507072049 14 265 19.3 25.7 0.00 0.00 0.00 67 1012.1
20260507072010 15 256 19.3 25.7 0.00 0.00 0.00 68 1012.9
20260507071916 15 243 17.7 25.7 0.00 0.00 0.00 68 1013.0
20260507071820 15 238 19.3 25.7 0.00 0.00 0.00 70 1012.9
20260507071723 15 266 19.3 25.7 0.00 0.00 0.00 70 1013.0
20260507071652 14 247 17.7 25.7 0.00 0.00 0.00 70 1012.1
20260507071615 15 258 17.7 20.9 0.00 0.00 0.00 70 1012.9
20260507071516 15 257 17.7 20.9 0.00 0.00 0.00 70 1012.9
20260507071417 15 242 14.5 19.3 0.00 0.00 0.00 71 1012.9
20260507071321 14 257 14.5 19.3 0.00 0.00 0.00 70 1012.9
20260507071216 14 234 14.5 19.3 0.00 0.00 0.00 70 1012.9
20260507071119 14 270 14.5 19.3 0.00 0.00 0.00 70 1012.9
20260507071018 14 259 14.5 19.3 0.00 0.00 0.00 71 1012.9
20260507070859 14 261 14.5 22.5 0.00 0.00 0.00 71 1013.0
20260507070754 14 268 12.9 22.5 0.00 0.00 0.00 71 1013.0
20260507070656 14 260 12.9 22.5 0.00 0.00 0.00 71 1012.9
20260507070558 14 226 12.9 22.5 0.00 0.00 0.00 72 1012.9
20260507070500 14 253 11.3 22.5 0.00 0.00 0.00 72 1012.9
20260507070334 14 276 12.9 22.5 0.00 0.00 0.00 72 1013.0
20260507070236 14 270 16.1 22.5 0.00 0.00 0.00 71 1013.0
20260507070129 14 248 16.1 22.5 0.00 0.00 0.00 72 1013.0
20260507070030 13 256 12.9 19.3 0.00 0.00 0.00 72 1012.9
20260507065915 13 264 12.9 16.1 0.00 0.00 0.00 72 1012.9
20260507065819 13 272 12.9 16.1 0.00 0.00 0.00 72 1012.9
20260507065650 13 259 11.3 16.1 0.00 0.00 0.00 72 1012.9
20260507065532 13 284 12.9 17.7 0.00 0.00 0.00 72 1012.9
20260507065436 13 279 12.9 17.7 0.00 0.00 0.00 72 1012.9
20260507065307 13 262 12.9 17.7 0.00 0.00 0.00 72 1012.9
20260507065213 13 277 11.3 17.7 0.00 0.00 0.00 72 1012.9
20260507065116 13 251 11.3 17.7 0.00 0.00 0.00 72 1012.9
20260507065017 13 243 12.9 19.3 0.00 0.00 0.00 71 1012.9
20260507064909 13 262 14.5 24.1 0.00 0.00 0.00 72 1012.9
20260507064752 13 237 12.9 24.1 0.00 0.00 0.00 72 1012.9
20260507064633 13 265 12.9 24.1 0.00 0.00 0.00 71 1013.0
20260507064558 13 268 12.9 24.1 0.00 0.00 0.00 72 1012.1
20260507064522 13 276 14.5 24.1 0.00 0.00 0.00 72 1013.0
20260507064345 13 263 12.9 24.1 0.00 0.00 0.00 71 1013.0
20260507064226 13 227 14.5 24.1 0.00 0.00 0.00 71 1013.0
20260507064129 13 238 14.5 22.5 0.00 0.00 0.00 72 1012.9
20260507064028 13 261 16.1 20.9 0.00 0.00 0.00 72 1013.0
20260507064005 13 246 16.1 20.9 0.00 0.00 0.00 72 1012.1
20260507063922 13 249 16.1 20.9 0.00 0.00 0.00 72 1013.0
20260507063825 13 251 16.1 20.9 0.00 0.00 0.00 72 1012.9
20260507063711 13 253 16.1 20.9 0.00 0.00 0.00 72 1012.9
20260507063637 13 243 14.5 20.9 0.00 0.00 0.00 72 1012.1
20260507063604 13 229 14.5 20.9 0.00 0.00 0.00 72 1013.0
20260507063504 13 261 16.1 20.9 0.00 0.00 0.00 72 1012.9
20260507063347 13 251 12.9 19.3 0.00 0.00 0.00 72 1012.9
20260507063250 13 257 12.9 19.3 0.00 0.00 0.00 73 1012.9
20260507063152 13 265 14.5 19.3 0.00 0.00 0.00 72 1012.9
20260507063127 13 255 14.5 19.3 0.00 0.00 0.00 72 1012.0
20260507063047 13 258 14.5 19.3 0.00 0.00 0.00 72 1012.9
20260507062950 13 253 14.5 19.3 0.00 0.00 0.00 72 1012.9
20260507062831 13 248 14.5 20.9 0.00 0.00 0.00 72 1012.9
20260507062735 13 274 14.5 20.9 0.00 0.00 0.00 72 1012.9
20260507062650 13 279 14.5 20.9 0.00 0.00 0.00 72 1012.0
20260507062544 13 258 12.9 20.9 0.00 0.00 0.00 73 1012.9
20260507062447 13 243 12.9 20.9 0.00 0.00 0.00 73 1012.9
20260507062335 13 261 12.9 20.9 0.00 0.00 0.00 73 1012.9
20260507062225 13 258 14.5 20.9 0.00 0.00 0.00 73 1012.9
20260507062106 13 273 14.5 20.9 0.00 0.00 0.00 73 1012.8
20260507062003 13 268 14.5 19.3 0.00 0.00 0.00 73 1012.7
20260507061845 13 261 14.5 19.3 0.00 0.00 0.00 73 1012.7
20260507061716 13 276 16.1 20.9 0.00 0.00 0.00 72 1012.7
20260507061555 13 281 14.5 20.9 0.00 0.00 0.00 73 1012.7
20260507061503 13 272 14.5 20.9 0.00 0.00 0.00 73 1012.7
20260507061406 13 266 14.5 20.9 0.00 0.00 0.00 72 1012.8
20260507061301 13 276 16.1 20.9 0.00 0.00 0.00 72 1012.8
20260507061202 13 263 16.1 20.9 0.00 0.00 0.00 73 1012.7
20260507061041 13 255 14.5 20.9 0.00 0.00 0.00 73 1012.7
20260507060913 13 276 14.5 17.7 0.00 0.00 0.00 74 1012.7
20260507060819 13 245 11.3 17.7 0.00 0.00 0.00 74 1012.6
20260507060700 13 255 11.3 17.7 0.00 0.00 0.00 74 1012.6
20260507060559 13 274 12.9 17.7 0.00 0.00 0.00 74 1012.6
20260507060527 13 283 12.9 17.7 0.00 0.00 0.00 74 1011.8
20260507060452 13 263 12.9 17.7 0.00 0.00 0.00 74 1012.6
20260507060355 13 270 12.9 17.7 0.00 0.00 0.00 74 1012.6
20260507060257 13 271 12.9 17.7 0.00 0.00 0.00 74 1012.6
20260507060120 13 268 11.3 17.7 0.00 0.00 0.00 74 1012.6
20260507060004 13 312 9.7 16.1 0.00 0.00 0.00 74 1012.5
20260507055854 13 287 8.0 16.1 0.00 0.00 0.00 74 1012.5
20260507055755 13 270 8.0 16.1 0.00 0.00 0.00 74 1012.5
20260507055636 13 280 11.3 16.1 0.00 0.00 0.00 74 1012.5
20260507055606 13 266 9.7 17.7 0.00 0.00 0.00 75 1011.6
20260507055505 13 268 9.7 17.7 0.00 0.00 0.00 75 1012.5
20260507055408 13 251 9.7 17.7 0.00 0.00 0.00 75 1012.5
20260507055316 13 288 9.7 17.7 0.00 0.00 0.00 75 1012.5
20260507055218 13 271 9.7 17.7 0.00 0.00 0.00 75 1012.5
20260507055148 13 276 9.7 22.5 0.00 0.00 0.00 74 1011.6
20260507055112 13 278 11.3 22.5 0.00 0.00 0.00 74 1012.5
20260507055013 13 292 12.9 22.5 0.00 0.00 0.00 75 1012.5
20260507054915 13 280 14.5 22.5 0.00 0.00 0.00 74 1012.5
20260507054817 13 283 12.9 22.5 0.00 0.00 0.00 75 1012.5
20260507054647 13 274 12.9 22.5 0.00 0.00 0.00 75 1012.4
20260507054551 13 290 14.5 22.5 0.00 0.00 0.00 75 1012.5
20260507054433 13 282 14.5 22.5 0.00 0.00 0.00 75 1012.5
20260507054326 13 261 14.5 22.5 0.00 0.00 0.00 75 1012.5
20260507054227 13 278 12.9 19.3 0.00 0.00 0.00 76 1012.5
20260507054130 13 274 11.3 16.1 0.00 0.00 0.00 76 1012.4
20260507054007 13 269 11.3 20.9 0.00 0.00 0.00 76 1012.4
20260507053903 13 248 9.7 20.9 0.00 0.00 0.00 76 1012.4
20260507053806 13 272 11.3 20.9 0.00 0.00 0.00 76 1012.4
20260507053707 13 286 12.9 20.9 0.00 0.00 0.00 76 1012.4
20260507053611 12 278 12.9 20.9 0.00 0.00 0.00 76 1012.4
20260507053546 12 276 11.3 20.9 0.00 0.00 0.00 76 1011.4
20260507053500 12 276 12.9 20.9 0.00 0.00 0.00 76 1012.3
20260507053401 12 274 16.1 20.9 0.00 0.00 0.00 76 1012.3
20260507053309 12 272 16.1 20.9 0.00 0.00 0.00 76 1012.3
20260507053140 12 270 14.5 22.5 0.00 0.00 0.00 76 1012.3
20260507053040 12 280 14.5 22.5 0.00 0.00 0.00 76 1012.3
20260507052918 12 276 12.9 22.5 0.00 0.00 0.00 76 1012.2
20260507052820 12 260 12.9 22.5 0.00 0.00 0.00 76 1012.2
20260507052722 12 247 14.5 22.5 0.00 0.00 0.00 76 1012.2
20260507052636 12 268 14.5 22.5 0.00 0.00 0.00 76 1011.3
20260507052551 12 275 14.5 22.5 0.00 0.00 0.00 76 1012.2
20260507052456 12 278 14.5 22.5 0.00 0.00 0.00 76 1012.2
20260507052359 12 273 14.5 22.5 0.00 0.00 0.00 76 1012.2
20260507052232 12 271 14.5 19.3 0.00 0.00 0.00 76 1012.1
20260507052134 12 259 14.5 19.3 0.00 0.00 0.00 76 1012.1
20260507052035 12 280 12.9 19.3 0.00 0.00 0.00 76 1012.0
20260507052003 12 263 11.3 19.3 0.00 0.00 0.00 76 1011.1
20260507051927 12 272 14.5 19.3 0.00 0.00 0.00 76 1012.0
20260507051813 12 279 14.5 19.3 0.00 0.00 0.00 76 1012.0
20260507051714 12 289 14.5 19.3 0.00 0.00 0.00 76 1012.0
20260507051617 12 270 14.5 19.3 0.00 0.00 0.00 77 1012.0
20260507051540 12 265 14.5 19.3 0.00 0.00 0.00 77 1011.0
20260507051509 12 292 14.5 19.3 0.00 0.00 0.00 77 1012.0
20260507051412 12 295 12.9 19.3 0.00 0.00 0.00 77 1012.0
20260507051314 12 272 12.9 19.3 0.00 0.00 0.00 77 1012.0
20260507051219 12 263 11.3 19.3 0.00 0.00 0.00 77 1012.0
20260507051148 12 260 11.3 19.3 0.00 0.00 0.00 77 1011.0
20260507051109 12 263 12.9 19.3 0.00 0.00 0.00 77 1012.0
20260507050951 12 267 12.9 19.3 0.00 0.00 0.00 77 1012.0
20260507050854 12 261 11.3 16.1 0.00 0.00 0.00 78 1012.0
20260507050756 12 271 11.3 16.1 0.00 0.00 0.00 78 1012.0
20260507050651 12 280 11.3 16.1 0.00 0.00 0.00 78 1012.0
20260507050551 12 261 9.7 16.1 0.00 0.00 0.00 78 1012.0
20260507050458 12 274 9.7 16.1 0.00 0.00 0.00 78 1011.9
20260507050332 12 259 11.3 16.1 0.00 0.00 0.00 78 1011.9
20260507050233 12 253 9.7 16.1 0.00 0.00 0.00 78 1011.9
20260507050135 12 285 9.7 16.1 0.00 0.00 0.00 78 1011.9
20260507050103 12 271 8.0 16.1 0.00 0.00 0.00 78 1011.0
20260507050026 12 278 9.7 16.1 0.00 0.00 0.00 78 1011.9
20260507045928 12 282 11.3 16.1 0.00 0.00 0.00 78 1011.9
20260507045656 12 275 11.3 17.7 0.00 0.00 0.00 78 1011.9
20260507045536 12 273 11.3 17.7 0.00 0.00 0.00 78 1011.9
20260507045438 12 279 12.9 17.7 0.00 0.00 0.00 78 1011.9
20260507045342 12 282 12.9 17.7 0.00 0.00 0.00 78 1011.9
20260507045246 12 284 12.9 17.7 0.00 0.00 0.00 78 1011.9
20260507045139 12 274 12.9 19.3 0.00 0.00 0.00 78 1011.9
20260507045042 12 257 12.9 19.3 0.00 0.00 0.00 79 1011.8
20260507044946 12 282 12.9 19.3 0.00 0.00 0.00 79 1011.8
20260507044839 12 282 12.9 19.3 0.00 0.00 0.00 79 1011.8
20260507044719 12 280 12.9 19.3 0.00 0.00 0.00 79 1011.8
20260507044623 12 280 12.9 19.3 0.00 0.00 0.00 79 1011.7
20260507044524 12 272 14.5 19.3 0.00 0.00 0.00 79 1011.7
20260507044421 12 266 14.5 19.3 0.00 0.00 0.00 79 1011.6
20260507044325 12 265 12.9 19.3 0.00 0.00 0.00 79 1011.7
20260507044225 12 280 11.3 19.3 0.00 0.00 0.00 79 1011.7
20260507044036 11 301 11.3 19.3 0.00 0.00 0.00 79 1010.8
20260507043948 11 257 11.3 19.3 0.00 0.00 0.00 79 1011.6
20260507043850 11 279 12.9 19.3 0.00 0.00 0.00 79 1011.6
20260507043752 11 279 12.9 19.3 0.00 0.00 0.00 79 1011.6
20260507043639 11 276 14.5 19.3 0.00 0.00 0.00 79 1011.6
20260507043613 11 270 14.5 19.3 0.00 0.00 0.00 79 1010.7
20260507043531 11 269 14.5 19.3 0.00 0.00 0.00 79 1011.6
20260507043413 11 265 12.9 17.7 0.00 0.00 0.00 79 1011.6
20260507043317 11 265 12.9 17.7 0.00 0.00 0.00 79 1011.6
20260507043219 11 281 14.5 17.7 0.00 0.00 0.00 79 1011.6
20260507043156 11 274 14.5 17.7 0.00 0.00 0.00 79 1010.7
20260507043112 11 282 14.5 17.7 0.00 0.00 0.00 80 1011.6
20260507043012 11 274 12.9 17.7 0.00 0.00 0.00 80 1011.6
20260507042919 11 267 12.9 16.1 0.00 0.00 0.00 80 1011.6
20260507042813 11 270 12.9 16.1 0.00 0.00 0.00 80 1011.6
20260507042654 11 276 12.9 16.1 0.00 0.00 0.00 80 1011.4
20260507042554 11 272 12.9 16.1 0.00 0.00 0.00 80 1011.5
20260507042456 11 274 12.9 16.1 0.00 0.00 0.00 80 1011.5
20260507042218 11 276 12.9 16.1 0.00 0.00 0.00 80 1011.4
20260507042124 11 273 12.9 16.1 0.00 0.00 0.00 80 1011.4
20260507042052 11 252 11.3 16.1 0.00 0.00 0.00 80 1010.5
20260507042016 11 276 11.3 16.1 0.00 0.00 0.00 80 1011.4
20260507041918 11 269 11.3 16.1 0.00 0.00 0.00 80 1011.4
20260507041820 11 276 9.7 16.1 0.00 0.00 0.00 80 1011.4
20260507041723 11 272 9.7 17.7 0.00 0.00 0.00 80 1011.3
20260507041636 11 265 8.0 17.7 0.00 0.00 0.00 80 1010.5
20260507041534 11 272 11.3 19.3 0.00 0.00 0.00 80 1011.3
20260507041442 11 268 12.9 19.3 0.00 0.00 0.00 80 1011.3
20260507041313 11 270 11.3 19.3 0.00 0.00 0.00 80 1011.2
20260507041215 11 273 11.3 19.3 0.00 0.00 0.00 79 1011.2
20260507041119 11 278 12.9 19.3 0.00 0.00 0.00 79 1011.3
20260507041019 11 267 14.5 19.3 0.00 0.00 0.00 79 1011.3
20260507040912 11 286 14.5 19.3 0.00 0.00 0.00 79 1011.2
20260507040820 11 269 14.5 19.3 0.00 0.00 0.00 79 1011.2
20260507040723 11 263 14.5 17.7 0.00 0.00 0.00 79 1011.3
20260507040626 11 257 14.5 17.7 0.00 0.00 0.00 79 1011.3
20260507040553 11 268 12.9 17.7 0.00 0.00 0.00 79 1010.4
20260507040516 11 263 14.5 17.7 0.00 0.00 0.00 79 1011.2
20260507040420 11 271 14.5 17.7 0.00 0.00 0.00 79 1011.2
20260507040321 11 268 14.5 17.7 0.00 0.00 0.00 79 1011.2
20260507040223 11 270 14.5 16.1 0.00 0.00 0.00 79 1011.2
20260507040155 11 268 12.9 16.1 0.00 0.00 0.00 79 1010.3
20260507040115 11 266 12.9 17.7 0.00 0.00 0.00 79 1011.2
20260507035936 11 266 12.9 17.7 0.00 0.00 0.00 79 1011.2
20260507035839 11 270 12.9 17.7 0.00 0.00 0.00 79 1011.2
20260507035743 12 257 11.3 19.3 0.00 0.00 0.00 78 1011.2
20260507035615 12 280 11.3 19.3 0.00 0.00 0.00 78 1011.1
20260507035515 12 284 9.7 19.3 0.00 0.00 0.00 78 1011.1
20260507035423 12 268 9.7 19.3 0.00 0.00 0.00 78 1011.1
20260507035326 12 270 12.9 19.3 0.00 0.00 0.00 78 1011.1
20260507035218 12 271 12.9 19.3 0.00 0.00 0.00 78 1011.0
20260507035120 12 265 12.9 19.3 0.00 0.00 0.00 78 1011.0
20260507034959 12 268 14.5 19.3 0.00 0.00 0.00 78 1011.0
20260507034850 12 261 16.1 19.3 0.00 0.00 0.00 78 1010.9
20260507034737 12 274 14.5 19.3 0.00 0.00 0.00 78 1010.9
20260507034640 12 268 14.5 20.9 0.00 0.00 0.00 78 1010.9
20260507034601 11 276 14.5 20.9 0.00 0.00 0.00 78 1010.1
20260507034510 12 270 14.5 20.9 0.00 0.00 0.00 78 1011.0
20260507034352 12 274 14.5 20.9 0.00 0.00 0.00 78 1011.0
20260507034254 12 263 16.1 20.9 0.00 0.00 0.00 78 1011.0
20260507034148 12 275 16.1 20.9 0.00 0.00 0.00 78 1010.9
20260507034049 12 271 14.5 20.9 0.00 0.00 0.00 78 1010.9
20260507033954 12 265 14.5 20.9 0.00 0.00 0.00 78 1010.9
20260507033857 12 267 16.1 20.9 0.00 0.00 0.00 78 1010.9
20260507033732 12 286 14.5 20.9 0.00 0.00 0.00 78 1010.9
20260507033636 12 265 12.9 17.7 0.00 0.00 0.00 78 1010.9
20260507033514 12 277 12.9 17.7 0.00 0.00 0.00 77 1010.9
20260507033221 12 263 12.9 17.7 0.00 0.00 0.00 77 1010.8
20260507033121 12 288 14.5 17.7 0.00 0.00 0.00 77 1010.8
20260507033029 11 271 12.9 17.7 0.00 0.00 0.00 77 1009.9
20260507032934 12 294 14.5 17.7 0.00 0.00 0.00 77 1010.8
20260507032836 12 288 14.5 19.3 0.00 0.00 0.00 77 1010.8
20260507032719 12 287 12.9 19.3 0.00 0.00 0.00 77 1010.8
20260507032649 11 279 11.3 19.3 0.00 0.00 0.00 77 1009.9
20260507032611 12 299 12.9 19.3 0.00 0.00 0.00 77 1010.8
20260507032437 12 276 12.9 19.3 0.00 0.00 0.00 77 1010.8
20260507032319 12 268 12.9 19.3 0.00 0.00 0.00 77 1010.8
20260507032213 12 274 14.5 19.3 0.00 0.00 0.00 77 1010.8
20260507032113 12 272 14.5 19.3 0.00 0.00 0.00 77 1010.8
20260507032014 12 277 14.5 19.3 0.00 0.00 0.00 77 1010.8
20260507031917 12 286 16.1 19.3 0.00 0.00 0.00 77 1010.8
20260507031755 12 274 14.5 19.3 0.00 0.00 0.00 77 1010.8
20260507031658 12 265 12.9 19.3 0.00 0.00 0.00 77 1010.8
20260507031559 12 269 12.9 19.3 0.00 0.00 0.00 77 1010.8
20260507031502 12 272 14.5 19.3 0.00 0.00 0.00 77 1010.8
20260507031355 12 276 16.1 19.3 0.00 0.00 0.00 77 1010.8
20260507031259 12 279 16.1 19.3 0.00 0.00 0.00 77 1010.8
20260507031141 12 265 14.5 17.7 0.00 0.00 0.00 77 1010.8
20260507031044 12 273 14.5 17.7 0.00 0.00 0.00 77 1010.8
20260507031021 12 274 12.9 17.7 0.00 0.00 0.00 77 1009.9
20260507030938 12 270 14.5 17.7 0.00 0.00 0.00 77 1010.8
20260507030842 12 274 14.5 17.7 0.00 0.00 0.00 77 1010.8
20260507030745 12 270 12.9 17.7 0.00 0.00 0.00 77 1010.8
20260507030627 12 276 12.9 17.7 0.00 0.00 0.00 77 1010.9
20260507030603 12 277 12.9 17.7 0.00 0.00 0.00 77 1010.0
20260507030519 12 272 14.5 17.7 0.00 0.00 0.00 77 1010.9
20260507030425 12 271 14.5 17.7 0.00 0.00 0.00 77 1010.9
20260507030327 12 269 12.9 17.7 0.00 0.00 0.00 76 1010.9
20260507030209 12 269 12.9 17.7 0.00 0.00 0.00 76 1010.9
20260507030139 12 259 11.3 17.7 0.00 0.00 0.00 76 1010.0
20260507030057 12 280 11.3 17.7 0.00 0.00 0.00 76 1010.9
20260507025959 12 265 12.9 17.7 0.00 0.00 0.00 76 1010.9
20260507025900 12 265 12.9 19.3 0.00 0.00 0.00 76 1010.9
20260507025754 12 266 14.5 20.9 0.00 0.00 0.00 76 1010.9
20260507025701 12 268 12.9 20.9 0.00 0.00 0.00 76 1010.9
20260507025604 12 257 14.5 22.5 0.00 0.00 0.00 76 1010.9
20260507025444 12 255 14.5 22.5 0.00 0.00 0.00 76 1010.9
20260507025337 12 278 12.9 22.5 0.00 0.00 0.00 76 1010.9
20260507025239 12 261 12.9 22.5 0.00 0.00 0.00 76 1010.8
20260507025120 12 268 16.1 22.5 0.00 0.00 0.00 76 1010.8
20260507025024 12 253 16.1 22.5 0.00 0.00 0.00 76 1010.9
20260507025001 12 256 16.1 22.5 0.00 0.00 0.00 76 1010.0
20260507024917 12 258 16.1 22.5 0.00 0.00 0.00 76 1010.8
20260507024819 12 272 14.5 22.5 0.00 0.00 0.00 76 1010.8
20260507024723 12 268 14.5 22.5 0.00 0.00 0.00 76 1010.8
20260507024649 12 263 14.5 22.5 0.00 0.00 0.00 75 1009.9
20260507024615 12 251 16.1 22.5 0.00 0.00 0.00 75 1010.7
20260507024456 12 256 16.1 22.5 0.00 0.00 0.00 75 1010.7
20260507024338 12 252 17.7 22.5 0.00 0.00 0.00 75 1010.7
20260507024243 12 272 16.1 27.4 0.00 0.00 0.00 75 1010.7
20260507024143 12 274 16.1 27.4 0.00 0.00 0.00 75 1010.8
20260507024118 12 261 14.5 27.4 0.00 0.00 0.00 75 1009.9
20260507024033 12 276 16.1 27.4 0.00 0.00 0.00 75 1010.7
20260507023937 12 245 16.1 27.4 0.00 0.00 0.00 75 1010.7
20260507023839 12 263 17.7 27.4 0.00 0.00 0.00 75 1010.7
20260507023700 12 270 17.7 27.4 0.00 0.00 0.00 75 1010.7
20260507023634 12 279 16.1 27.4 0.00 0.00 0.00 75 1009.8
20260507023535 12 263 17.7 27.4 0.00 0.00 0.00 74 1010.7
20260507023439 12 267 17.7 27.4 0.00 0.00 0.00 74 1010.6
20260507023333 12 276 17.7 24.1 0.00 0.00 0.00 74 1010.6
20260507023213 12 268 16.1 27.4 0.00 0.00 0.00 74 1010.6
20260507023115 12 268 17.7 30.6 0.00 0.00 0.00 74 1010.6
20260507023015 13 253 19.3 30.6 0.00 0.00 0.00 74 1010.5
20260507022842 13 270 19.3 30.6 0.00 0.00 0.00 74 1010.5
20260507022734 13 263 19.3 30.6 0.00 0.00 0.00 74 1010.5
20260507022615 13 274 19.3 30.6 0.00 0.00 0.00 74 1010.5
20260507022517 13 268 20.9 30.6 0.00 0.00 0.00 74 1010.5
20260507022420 13 263 22.5 30.6 0.00 0.00 0.00 73 1010.5
20260507022311 13 260 24.1 30.6 0.00 0.00 0.00 73 1010.5
20260507022214 13 276 20.9 30.6 0.00 0.00 0.00 73 1010.6
20260507022120 13 278 20.9 27.4 0.00 0.00 0.00 73 1010.6
20260507022043 12 258 20.9 30.6 0.00 0.00 0.00 73 1009.7
20260507022008 13 266 20.9 30.6 0.00 0.00 0.00 73 1010.5
20260507021911 13 282 20.9 30.6 0.00 0.00 0.00 73 1010.6
20260507021814 13 264 20.9 32.2 0.00 0.00 0.00 73 1010.6
20260507021717 13 268 20.9 32.2 0.00 0.00 0.00 73 1010.5
20260507021643 12 293 20.9 32.2 0.00 0.00 0.00 73 1009.7
20260507021610 13 270 19.3 32.2 0.00 0.00 0.00 73 1010.6
20260507021436 13 268 19.3 32.2 0.00 0.00 0.00 73 1010.5
20260507021340 13 281 20.9 32.2 0.00 0.00 0.00 73 1010.5
20260507021232 13 264 22.5 32.2 0.00 0.00 0.00 73 1010.5
20260507021135 13 259 24.1 32.2 0.00 0.00 0.00 73 1010.5
20260507021036 13 246 20.9 32.2 0.00 0.00 0.00 73 1010.5
20260507020918 13 277 20.9 32.2 0.00 0.00 0.00 73 1010.4
20260507020816 13 257 19.3 37.0 0.00 0.00 0.00 73 1010.4
20260507020718 13 274 19.3 37.0 0.00 0.00 0.00 73 1010.4
20260507020622 13 263 20.9 37.0 0.00 0.00 0.00 73 1010.4
20260507020523 13 268 20.9 37.0 0.00 0.00 0.00 73 1010.4
20260507020355 13 271 22.5 37.0 0.00 0.00 0.00 73 1010.3
20260507020258 13 268 24.1 37.0 0.00 0.00 0.00 73 1010.3
20260507020200 13 263 25.7 37.0 0.00 0.00 0.00 73 1010.3
20260507020108 13 257 25.7 37.0 0.00 0.00 0.00 73 1010.3
20260507020055 13 274 25.7 37.0 0.00 0.00 0.00 73 1009.4
20260507015958 13 270 24.1 35.4 0.00 0.00 0.00 73 1010.3
20260507015840 13 276 20.9 32.2 0.00 0.00 0.00 73 1010.3
20260507015744 13 249 22.5 32.2 0.00 0.00 0.00 73 1010.3
20260507015638 13 267 22.5 35.4 0.00 0.00 0.00 73 1010.4
20260507015539 13 275 20.9 35.4 0.00 0.00 0.00 72 1010.4
20260507015425 13 271 20.9 35.4 0.00 0.00 0.00 72 1010.3
20260507015328 13 274 19.3 35.4 0.00 0.00 0.00 72 1010.3
20260507015220 13 273 20.9 35.4 0.00 0.00 0.00 72 1010.3
20260507015122 13 260 22.5 35.4 0.00 0.00 0.00 72 1010.3
20260507015021 13 268 24.1 35.4 0.00 0.00 0.00 72 1010.3
20260507014925 13 267 25.7 35.4 0.00 0.00 0.00 72 1010.3
20260507014820 13 251 27.4 37.0 0.00 0.00 0.00 72 1010.3
20260507014706 13 261 25.7 37.0 0.00 0.00 0.00 73 1010.3
20260507014607 13 271 25.7 37.0 0.00 0.00 0.00 73 1010.3
20260507014447 13 280 22.5 33.8 0.00 0.00 0.00 73 1010.3
20260507014340 13 270 22.5 33.8 0.00 0.00 0.00 73 1010.3
20260507014241 13 278 24.1 33.8 0.00 0.00 0.00 73 1010.2
20260507014145 13 277 20.9 33.8 0.00 0.00 0.00 73 1010.3
20260507014050 13 274 19.3 29.0 0.00 0.00 0.00 73 1010.3
20260507014022 13 278 19.3 29.0 0.00 0.00 0.00 73 1009.3
20260507013943 13 276 19.3 29.0 0.00 0.00 0.00 73 1010.2
20260507013847 13 287 17.7 29.0 0.00 0.00 0.00 73 1010.3
20260507013751 13 289 17.7 37.0 0.00 0.00 0.00 73 1010.2
20260507013656 13 259 17.7 37.0 0.00 0.00 0.00 73 1009.3
20260507013623 13 270 20.9 37.0 0.00 0.00 0.00 73 1010.2
20260507013524 13 274 24.1 37.0 0.00 0.00 0.00 73 1010.2
20260507013425 13 271 20.9 37.0 0.00 0.00 0.00 73 1010.2
20260507013154 13 261 20.9 37.0 0.00 0.00 0.00 73 1010.2
20260507013054 13 267 25.7 37.0 0.00 0.00 0.00 73 1010.1
20260507012956 13 266 27.4 37.0 0.00 0.00 0.00 73 1010.1
20260507012858 13 261 25.7 35.4 0.00 0.00 0.00 73 1010.1
20260507012751 13 259 25.7 35.4 0.00 0.00 0.00 73 1010.2
20260507012654 13 272 25.7 35.4 0.00 0.00 0.00 73 1010.1
20260507012558 13 261 25.7 35.4 0.00 0.00 0.00 73 1010.2
20260507012502 13 267 25.7 37.0 0.00 0.00 0.00 73 1010.2
20260507012356 13 268 27.4 37.0 0.00 0.00 0.00 73 1010.2
20260507012259 13 270 27.4 45.1 0.00 0.00 0.00 73 1010.1
20260507012158 13 259 25.7 45.1 0.00 0.00 0.00 72 1010.0
20260507012124 13 264 25.7 45.1 0.00 0.00 0.00 72 1009.1
20260507012050 13 258 27.4 45.1 0.00 0.00 0.00 72 1010.1
20260507011935 13 252 27.4 45.1 0.00 0.00 0.00 73 1010.0
20260507011838 13 258 27.4 45.1 0.00 0.00 0.00 73 1010.0
20260507011642 13 271 25.7 45.1 0.00 0.00 0.00 73 1009.0
20260507011605 13 249 29.0 45.1 0.00 0.00 0.00 72 1009.9
20260507011505 13 259 33.8 45.1 0.00 0.00 0.00 72 1010.0
20260507011408 13 279 33.8 46.7 0.00 0.00 0.00 73 1009.9
20260507011311 13 242 30.6 43.5 0.00 0.00 0.00 73 1009.8
20260507011206 13 253 30.6 43.5 0.00 0.00 0.00 73 1009.8
20260507011110 13 268 29.0 43.5 0.00 0.00 0.00 73 1009.8
20260507011010 13 270 27.4 38.6 0.00 0.00 0.00 73 1009.8
20260507010913 13 256 27.4 38.6 0.00 0.00 0.00 73 1009.8
20260507010806 13 257 27.4 45.1 0.00 0.00 0.00 73 1009.7
20260507010708 13 256 29.0 45.1 0.00 0.00 0.00 73 1009.7
20260507010611 13 276 29.0 45.1 0.00 0.00 0.00 73 1009.8
20260507010515 13 249 30.6 45.1 0.00 0.00 0.00 73 1009.8
20260507010409 13 265 25.7 45.1 0.00 0.00 0.00 73 1009.8
20260507010252 13 266 27.4 45.1 0.00 0.00 0.00 73 1009.8
20260507010112 13 251 32.2 49.9 0.00 0.00 0.00 73 1009.7
20260507010040 13 270 30.6 49.9 0.00 0.00 0.00 73 1008.7
20260507005835 13 259 35.4 49.9 0.00 0.00 0.00 73 1009.7
20260507005738 13 272 32.2 49.9 0.00 0.00 0.00 73 1009.7
20260507005645 13 247 30.6 49.9 0.00 0.00 0.00 73 1009.7
20260507005548 13 288 27.4 49.9 0.00 0.00 0.00 73 1008.7
20260507005515 13 257 32.2 49.9 0.00 0.00 0.00 73 1009.6
20260507005357 13 236 35.4 49.9 0.00 0.00 0.00 73 1009.7
20260507005259 13 247 35.4 49.9 0.00 0.00 0.00 73 1009.6
20260507005201 13 248 35.4 46.7 0.00 0.00 0.00 73 1009.7
20260507005106 13 268 33.8 46.7 0.00 0.00 0.00 73 1008.7
20260507005032 13 274 35.4 46.7 0.00 0.00 0.00 73 1009.7
20260507004939 13 266 35.4 46.7 0.00 0.00 0.00 73 1009.7
20260507004819 13 256 32.2 46.7 0.00 0.00 0.00 73 1009.7
20260507004723 13 273 33.8 43.5 0.00 0.00 0.00 73 1009.7
20260507004628 13 274 32.2 43.5 0.00 0.00 0.00 73 1009.8
20260507004539 13 282 30.6 43.5 0.00 0.00 0.00 73 1008.7
20260507004457 13 264 30.6 41.8 0.00 0.00 0.00 73 1009.8
20260507004340 13 280 30.6 41.8 0.00 0.00 0.00 73 1009.8
20260507004138 13 266 20.9 41.8 0.00 0.00 0.00 74 1008.8
20260507004107 13 273 24.1 41.8 0.00 0.00 0.00 74 1009.8
20260507004007 13 263 27.4 41.8 0.00 0.00 0.00 74 1009.8
20260507003910 13 271 27.4 41.8 0.00 0.00 0.00 74 1009.8
20260507003813 13 266 25.7 41.8 0.00 0.00 0.00 74 1009.8
20260507003706 13 274 29.0 41.8 0.00 0.00 0.00 74 1009.8
20260507003608 13 259 32.2 41.8 0.00 0.00 0.00 74 1009.8
20260507003508 13 259 29.0 40.2 0.00 0.00 0.00 74 1009.8
20260507003416 13 257 27.4 38.6 0.00 0.00 0.00 74 1009.8
20260507003311 13 232 24.1 41.8 0.00 0.00 0.00 74 1009.9
20260507003211 13 272 27.4 45.1 0.00 0.00 0.00 74 1009.9
20260507003051 13 281 27.4 45.1 0.00 0.00 0.00 74 1010.0
20260507002956 13 274 24.1 45.1 0.00 0.00 0.00 74 1010.0
20260507002848 13 270 24.1 45.1 0.00 0.00 0.00 74 1010.0
20260507002755 13 276 25.7 45.1 0.00 0.00 0.00 74 1009.9
20260507002659 13 270 25.7 45.1 0.00 0.00 0.00 74 1010.0
20260507002600 13 280 29.0 45.1 0.00 0.00 0.00 75 1010.0
20260507002536 13 248 27.4 45.1 0.00 0.00 0.00 74 1009.0
20260507002452 13 279 30.6 45.1 0.00 0.00 0.00 75 1009.9
20260507002355 13 273 27.4 45.1 0.00 0.00 0.00 75 1009.9
20260507002259 13 242 25.7 41.8 0.00 0.00 0.00 75 1009.9
20260507002130 13 226 25.7 41.8 0.00 0.00 0.00 75 1009.9
20260507002035 13 270 29.0 41.8 0.00 0.00 0.00 75 1009.9
20260507001917 13 257 32.2 41.8 0.00 0.00 0.00 75 1009.9
20260507001819 13 253 32.2 41.8 0.00 0.00 0.00 75 1009.8
20260507001712 13 229 29.0 40.2 0.00 0.00 0.00 75 1009.9
20260507001552 14 258 32.2 40.2 0.00 0.00 0.00 75 1009.9
20260507001434 14 257 27.4 40.2 0.00 0.00 0.00 75 1009.8
20260507001321 14 228 25.7 40.2 0.00 0.00 0.00 75 1009.8
20260507001214 14 271 27.4 41.8 0.00 0.00 0.00 75 1009.9
20260507001118 14 268 29.0 41.8 0.00 0.00 0.00 75 1009.8
20260507001019 14 253 27.4 41.8 0.00 0.00 0.00 75 1009.9
20260507000921 14 248 30.6 41.8 0.00 0.00 0.00 75 1009.9
20260507000733 14 262 32.2 41.8 0.00 0.00 0.00 75 1009.9
20260507000639 14 261 33.8 41.8 0.00 0.00 0.00 76 1009.9
20260507000539 14 215 30.6 41.8 0.00 0.00 0.00 76 1009.9
20260507000413 14 243 25.7 40.2 0.00 0.00 0.00 76 1009.9
20260507000315 14 244 25.7 40.2 0.00 0.00 0.00 76 1009.8
20260507000219 14 249 24.1 40.2 0.00 0.00 0.00 76 1009.7
20260507000120 14 234 27.4 40.2 0.00 0.00 0.00 76 1009.7
20260507000054 13 268 29.0 40.2 0.00 0.00 0.00 76 1008.7
20260507000012 14 278 30.6 40.2 0.00 0.00 0.00 76 1009.7
20260506235920 14 258 30.6 40.2 0.00 0.00 0.00 76 1009.7
20260506235823 14 235 29.0 38.6 0.00 0.00 0.00 76 1009.7
20260506235725 14 229 27.4 38.6 0.00 0.00 0.00 76 1009.7
20260506235658 13 248 27.4 38.6 0.00 0.00 0.00 76 1008.7
20260506235555 14 262 27.4 38.6 0.00 0.00 0.00 76 1009.6
20260506235458 14 257 27.4 38.6 0.00 0.00 0.00 76 1009.7
20260506235400 14 247 29.0 41.8 0.00 0.00 0.00 76 1009.7
20260506235307 14 265 30.6 41.8 0.00 0.00 0.00 76 1009.7
20260506235200 14 249 29.0 41.8 0.00 0.00 0.00 76 1009.7
20260506235103 14 261 24.1 41.8 0.00 0.00 0.00 76 1009.7
20260506235002 14 234 24.1 41.8 0.00 0.00 0.00 76 1009.7
20260506234906 14 248 24.1 41.8 0.00 0.00 0.00 76 1009.6
20260506234736 14 246 29.0 41.8 0.00 0.00 0.00 76 1009.7
20260506234639 14 271 32.2 41.8 0.00 0.00 0.00 76 1009.6
20260506234544 14 274 32.2 41.8 0.00 0.00 0.00 76 1009.6
20260506234510 13 262 30.6 43.5 0.00 0.00 0.00 76 1008.6
20260506234437 14 260 27.4 38.6 0.00 0.00 0.00 76 1009.5
20260506234320 14 271 25.7 45.1 0.00 0.00 0.00 76 1009.6
20260506234221 14 269 27.4 45.1 0.00 0.00 0.00 76 1009.6
20260506234123 14 261 25.7 45.1 0.00 0.00 0.00 76 1009.6
20260506234005 14 266 27.4 45.1 0.00 0.00 0.00 76 1009.6
20260506233902 14 258 30.6 45.1 0.00 0.00 0.00 76 1009.5
20260506233804 14 268 29.0 45.1 0.00 0.00 0.00 76 1009.4
20260506233706 14 253 30.6 45.1 0.00 0.00 0.00 76 1009.4
20260506233609 14 250 30.6 45.1 0.00 0.00 0.00 76 1009.4
20260506233545 14 266 29.0 45.1 0.00 0.00 0.00 76 1008.4
20260506233500 14 242 25.7 38.6 0.00 0.00 0.00 76 1009.4
20260506233402 14 191 27.4 38.6 0.00 0.00 0.00 75 1009.4
20260506233302 14 246 27.4 40.2 0.00 0.00 0.00 75 1009.4
20260506233156 14 270 24.1 43.5 0.00 0.00 0.00 75 1009.2
20260506233036 14 250 22.5 46.7 0.00 0.00 0.00 75 1009.2
20260506232917 14 254 22.5 46.7 0.00 0.00 0.00 75 1009.2
20260506232759 14 263 25.7 46.7 0.00 0.00 0.00 75 1009.2
20260506232652 14 270 30.6 51.5 0.00 0.00 0.00 75 1009.2
20260506232553 14 267 33.8 51.5 0.00 0.00 0.00 75 1009.2
20260506232500 14 255 33.8 51.5 0.00 0.00 0.00 75 1009.2
20260506232403 14 273 32.2 51.5 0.00 0.00 0.00 75 1009.1
20260506232255 14 238 30.6 51.5 0.00 0.00 0.00 75 1009.0
20260506232138 14 255 32.2 51.5 0.00 0.00 0.00 75 1009.1
20260506232018 14 250 37.0 51.5 0.00 0.00 0.00 75 1009.0
20260506231921 14 265 38.6 51.5 0.00 0.00 0.00 75 1009.0
20260506231814 14 262 37.0 48.3 0.00 0.00 0.00 75 1009.0
20260506231722 14 257 33.8 45.1 0.00 0.00 0.00 75 1009.0
20260506231602 14 259 32.2 45.1 0.00 0.00 0.00 75 1008.9
20260506231502 14 245 30.6 45.1 0.00 0.00 0.00 75 1008.9
20260506231355 14 259 30.6 45.1 0.00 0.00 0.00 75 1008.9
20260506231258 14 280 32.2 45.1 0.00 0.00 0.00 75 1008.8
20260506231200 14 273 33.8 45.1 0.00 0.00 0.00 75 1008.8
20260506231124 14 249 33.8 45.1 0.00 0.00 0.00 75 1007.8
20260506231036 14 251 32.2 45.1 0.00 0.00 0.00 75 1008.8
20260506230938 14 267 32.2 45.1 0.00 0.00 0.00 75 1008.8
20260506230820 14 268 33.8 46.7 0.00 0.00 0.00 75 1008.8
20260506230705 14 258 32.2 51.5 0.00 0.00 0.00 75 1008.8
20260506230639 14 238 30.6 51.5 0.00 0.00 0.00 75 1007.8
20260506230555 14 265 30.6 51.5 0.00 0.00 0.00 75 1008.8
20260506230457 14 257 30.6 51.5 0.00 0.00 0.00 75 1008.8
20260506230402 14 272 32.2 51.5 0.00 0.00 0.00 75 1008.8
20260506230255 14 271 32.2 51.5 0.00 0.00 0.00 75 1008.7
20260506230158 14 265 29.0 51.5 0.00 0.00 0.00 75 1008.8
20260506230058 14 253 30.6 51.5 0.00 0.00 0.00 76 1008.7
20260506230000 14 263 32.2 51.5 0.00 0.00 0.00 76 1008.7
20260506225905 14 268 33.8 51.5 0.00 0.00 0.00 76 1008.7
20260506225756 14 233 30.6 51.5 0.00 0.00 0.00 76 1008.7
20260506225703 14 234 24.1 46.7 0.00 0.00 0.00 76 1008.7
20260506225604 15 243 27.4 46.7 0.00 0.00 0.00 76 1008.7
20260506225425 15 247 30.6 48.3 0.00 0.00 0.00 76 1008.7
20260506225318 15 257 33.8 53.1 0.00 0.00 0.00 76 1008.7
20260506225221 15 253 35.4 53.1 0.00 0.00 0.00 76 1008.7
20260506225058 15 270 37.0 53.1 0.00 0.00 0.00 76 1008.7
20260506225027 14 268 37.0 53.1 0.00 0.00 0.00 76 1007.7
20260506224936 15 250 35.4 53.1 0.00 0.00 0.00 76 1008.7
20260506224837 15 261 35.4 53.1 0.00 0.00 0.00 76 1008.6
20260506224741 15 280 38.6 53.1 0.00 0.00 0.00 76 1008.7
20260506224648 14 261 38.6 53.1 0.00 0.00 0.00 76 1007.6
20260506224614 15 276 41.8 53.1 0.00 0.00 0.00 76 1008.6
20260506224515 15 253 43.5 53.1 0.00 0.00 0.00 76 1008.6
20260506224418 15 247 40.2 53.1 0.00 0.00 0.00 75 1008.5
20260506224324 15 261 37.0 51.5 0.00 0.00 0.00 75 1008.6
20260506224155 15 249 37.0 51.5 0.00 0.00 0.00 75 1008.5
20260506224057 15 260 38.6 51.5 0.00 0.00 0.00 75 1008.6
20260506224000 15 268 37.0 53.1 0.00 0.00 0.00 75 1008.6
20260506223904 15 284 37.0 53.1 0.00 0.00 0.00 75 1008.6
20260506223757 15 243 38.6 53.1 0.00 0.00 0.00 75 1008.7
20260506223700 15 257 38.6 53.1 0.00 0.00 0.00 75 1008.7
20260506223607 15 265 37.0 53.1 0.00 0.00 0.00 75 1008.6
20260506223447 15 245 37.0 53.1 0.00 0.00 0.00 76 1008.6
20260506223340 15 250 35.4 48.3 0.00 0.00 0.00 76 1008.5
20260506223242 15 265 35.4 48.3 0.00 0.00 0.00 76 1008.5
20260506223145 15 251 37.0 48.3 0.00 0.00 0.00 75 1008.6
20260506223025 15 249 38.6 48.3 0.00 0.00 0.00 75 1008.5
20260506223003 15 268 37.0 48.3 0.00 0.00 0.00 75 1007.5
20260506222922 15 270 38.6 48.3 0.00 0.00 0.00 75 1008.4
20260506222825 15 275 40.2 48.3 0.00 0.00 0.00 75 1008.5
20260506222726 15 251 35.4 48.3 0.00 0.00 0.00 75 1008.4
20260506222651 15 253 40.2 49.9 0.00 0.00 0.00 75 1007.4
20260506222619 15 266 38.6 48.3 0.00 0.00 0.00 75 1008.4
20260506222517 15 261 38.6 46.7 0.00 0.00 0.00 75 1008.4
20260506222421 15 257 35.4 48.3 0.00 0.00 0.00 75 1008.5
20260506222306 15 212 33.8 48.3 0.00 0.00 0.00 75 1008.4
20260506222157 15 249 35.4 48.3 0.00 0.00 0.00 76 1008.3
20260506222057 15 263 33.8 48.3 0.00 0.00 0.00 76 1008.4
20260506222000 15 259 32.2 48.3 0.00 0.00 0.00 76 1008.3
20260506221901 15 248 32.2 48.3 0.00 0.00 0.00 76 1008.3
20260506221755 15 255 33.8 48.3 0.00 0.00 0.00 76 1008.3
20260506221658 16 271 37.0 48.3 0.00 0.00 0.00 75 1008.2
20260506221607 16 272 35.4 48.3 0.00 0.00 0.00 75 1008.2
20260506221507 16 273 35.4 48.3 0.00 0.00 0.00 76 1008.2
20260506221340 16 251 35.4 48.3 0.00 0.00 0.00 76 1008.2
20260506221242 16 248 35.4 48.3 0.00 0.00 0.00 76 1008.2
20260506221145 16 265 35.4 48.3 0.00 0.00 0.00 76 1008.2
20260506221024 16 256 30.6 49.9 0.00 0.00 0.00 77 1008.2
20260506220915 16 276 29.0 49.9 0.00 0.00 0.00 77 1008.1
20260506220801 16 247 30.6 49.9 0.00 0.00 0.00 77 1008.1
20260506220703 16 261 33.8 49.9 0.00 0.00 0.00 77 1008.1
20260506220605 16 271 38.6 49.9 0.00 0.00 0.00 77 1008.1
20260506220536 15 259 35.4 49.9 0.00 0.00 0.00 77 1007.1
20260506220457 16 273 32.2 46.7 0.00 0.00 0.00 77 1008.2
20260506220400 16 274 24.1 46.7 0.00 0.00 0.00 77 1008.2
20260506220303 16 275 25.7 48.3 0.00 0.00 0.00 77 1008.1
20260506220148 16 255 30.6 48.3 0.00 0.00 0.00 77 1008.0
20260506220121 15 261 32.2 48.3 0.00 0.00 0.00 77 1007.0
20260506220040 16 280 33.8 48.3 0.00 0.00 0.00 77 1007.9
20260506215943 16 255 35.4 48.3 0.00 0.00 0.00 77 1007.9
20260506215825 16 264 33.8 48.3 0.00 0.00 0.00 77 1007.8
20260506215728 16 246 32.2 48.3 0.00 0.00 0.00 77 1007.9
20260506215623 16 239 35.4 48.3 0.00 0.00 0.00 77 1007.9
20260506215503 16 251 38.6 48.3 0.00 0.00 0.00 76 1007.9
20260506215409 16 251 38.6 48.3 0.00 0.00 0.00 76 1007.7
20260506215311 16 261 37.0 46.7 0.00 0.00 0.00 76 1007.7
20260506215202 16 236 37.0 51.5 0.00 0.00 0.00 76 1007.7
20260506215102 16 264 30.6 51.5 0.00 0.00 0.00 75 1007.6
20260506214944 16 269 30.6 53.1 0.00 0.00 0.00 75 1007.7
20260506214846 16 253 30.6 53.1 0.00 0.00 0.00 75 1007.6
20260506214744 16 257 29.0 53.1 0.00 0.00 0.00 75 1007.6
20260506214647 16 259 30.6 53.1 0.00 0.00 0.00 75 1007.5
20260506214526 16 274 35.4 53.1 0.00 0.00 0.00 75 1007.6
20260506214310 16 262 40.2 53.1 0.00 0.00 0.00 74 1007.4
20260506214200 16 247 38.6 53.1 0.00 0.00 0.00 74 1007.3
20260506214059 16 228 32.2 53.1 0.00 0.00 0.00 73 1007.3
20260506213943 16 253 37.0 53.1 0.00 0.00 0.00 73 1007.2
20260506213825 16 248 38.6 53.1 0.00 0.00 0.00 72 1007.2
20260506213708 16 249 38.6 53.1 0.00 0.00 0.00 72 1007.2
20260506213621 16 261 35.4 48.3 0.00 0.00 0.00 72 1006.2
20260506213538 16 247 33.8 49.9 0.00 0.00 0.00 72 1007.2
20260506213440 16 259 32.2 49.9 0.00 0.00 0.00 72 1007.1
20260506213322 16 261 35.4 49.9 0.00 0.00 0.00 71 1007.2
20260506213223 16 232 37.0 49.9 0.00 0.00 0.00 71 1007.1
20260506213158 16 261 37.0 49.9 0.00 0.00 0.00 71 1006.1
20260506213049 16 263 40.2 49.9 0.00 0.00 0.00 71 1007.0
20260506212912 16 253 41.8 49.9 0.00 0.00 0.00 71 1006.9
20260506212815 16 248 38.6 49.9 0.00 0.00 0.00 71 1007.0
20260506212654 16 259 37.0 46.7 0.00 0.00 0.00 70 1006.9
20260506212626 16 265 35.4 46.7 0.00 0.00 0.00 70 1005.9
20260506212547 16 238 35.4 45.1 0.00 0.00 0.00 70 1006.8
20260506212435 16 253 35.4 51.5 0.00 0.00 0.00 70 1006.8
20260506212338 16 261 35.4 51.5 0.00 0.00 0.00 70 1006.8
20260506212209 16 250 35.4 51.5 0.00 0.00 0.00 70 1006.8
20260506212111 16 214 37.0 51.5 0.00 0.00 0.00 70 1006.8
20260506212013 16 242 33.8 51.5 0.00 0.00 0.00 70 1006.7
20260506211738 16 261 41.8 51.5 0.00 0.00 0.00 70 1006.6
20260506211643 16 230 40.2 53.1 0.00 0.00 0.00 69 1006.6
20260506211544 16 270 35.4 49.9 0.00 0.00 0.00 69 1006.6
20260506211521 16 238 33.8 49.9 0.00 0.00 0.00 69 1005.7
20260506211438 16 259 33.8 49.9 0.00 0.00 0.00 69 1006.6
20260506211319 16 250 38.6 49.9 0.00 0.00 0.00 69 1006.6
20260506211200 16 247 35.4 49.9 0.00 0.00 0.00 69 1006.6
20260506211059 16 251 32.2 49.9 0.00 0.00 0.00 69 1006.6
20260506211034 16 236 33.8 49.9 0.00 0.00 0.00 69 1005.6
20260506210956 16 247 37.0 49.9 0.00 0.00 0.00 69 1006.5
20260506210838 16 240 37.0 48.3 0.00 0.00 0.00 69 1006.5
20260506210740 16 251 35.4 48.3 0.00 0.00 0.00 68 1006.5
20260506210643 16 275 33.8 48.3 0.00 0.00 0.00 68 1006.4
20260506210554 16 232 32.2 48.3 0.00 0.00 0.00 68 1005.5
20260506210515 16 265 32.2 48.3 0.00 0.00 0.00 68 1006.5
20260506210417 16 253 32.2 48.3 0.00 0.00 0.00 68 1006.5
20260506210155 16 245 35.4 48.3 0.00 0.00 0.00 68 1005.4
20260506210003 16 255 29.0 46.7 0.00 0.00 0.00 68 1006.4
20260506205905 16 253 30.6 49.9 0.00 0.00 0.00 68 1006.3
20260506205747 16 253 30.6 49.9 0.00 0.00 0.00 68 1006.3
20260506205641 16 292 32.2 51.5 0.00 0.00 0.00 68 1006.3
20260506205540 16 236 35.4 51.5 0.00 0.00 0.00 67 1006.2
20260506205444 16 253 35.4 51.5 0.00 0.00 0.00 67 1006.3
20260506205352 17 271 33.8 51.5 0.00 0.00 0.00 67 1006.3
20260506205244 17 247 40.2 51.5 0.00 0.00 0.00 67 1006.2
20260506205126 17 245 35.4 51.5 0.00 0.00 0.00 67 1006.2
20260506205027 17 245 35.4 51.5 0.00 0.00 0.00 67 1006.2
20260506204930 17 232 33.8 51.5 0.00 0.00 0.00 67 1006.2
20260506204822 17 252 30.6 45.1 0.00 0.00 0.00 67 1006.2
20260506204729 17 213 29.0 45.1 0.00 0.00 0.00 67 1006.2
20260506204633 17 253 29.0 45.1 0.00 0.00 0.00 66 1006.2
20260506204534 16 252 30.6 45.1 0.00 0.00 0.00 66 1005.1
20260506204313 17 232 32.2 43.5 0.00 0.00 0.00 66 1006.1
20260506204215 17 261 32.2 41.8 0.00 0.00 0.00 66 1006.1
20260506204117 17 254 32.2 41.8 0.00 0.00 0.00 65 1006.0
20260506204028 17 243 30.6 38.6 0.00 0.00 0.00 65 1005.0
20260506203949 17 265 30.6 38.6 0.00 0.00 0.00 65 1006.0
20260506203813 17 255 29.0 45.1 0.00 0.00 0.00 64 1006.0
20260506203715 17 213 25.7 45.1 0.00 0.00 0.00 64 1006.0
20260506203615 17 249 27.4 51.5 0.00 0.00 0.00 63 1006.0
20260506203525 17 216 25.7 51.5 0.00 0.00 0.00 63 1005.0
20260506203449 17 250 27.4 51.5 0.00 0.00 0.00 63 1006.0
20260506203331 17 240 24.1 51.5 0.00 0.00 0.00 62 1006.1
20260506203233 18 250 25.7 51.5 0.00 0.00 0.00 62 1006.0
20260506203152 17 236 27.4 51.5 0.00 0.00 0.00 62 1004.9
20260506203108 18 253 30.6 51.5 0.00 0.00 0.00 62 1005.9
20260506203009 18 265 35.4 51.5 0.00 0.00 0.00 61 1005.9
20260506202911 18 272 38.6 51.5 0.00 0.00 0.00 61 1005.9
20260506202804 18 264 35.4 51.5 0.00 0.00 0.00 60 1005.8
20260506202706 18 259 38.6 49.9 0.00 0.00 0.00 58 1005.8
20260506202546 18 268 35.4 49.9 0.00 0.00 0.00 58 1005.7
20260506202427 19 259 37.0 49.9 0.00 0.00 0.00 57 1005.7
20260506202324 19 264 40.2 49.9 0.00 0.00 0.00 56 1005.6
20260506202226 19 274 35.4 48.3 0.00 0.00 0.00 53 1005.5
20260506202127 20 268 25.7 45.1 0.00 0.00 0.00 53 1005.5
20260506202007 20 268 25.7 35.4 0.00 0.00 0.00 52 1005.5
20260506201859 20 255 25.7 35.4 0.00 0.00 0.00 52 1005.3
20260506201801 20 270 24.1 35.4 0.00 0.00 0.00 52 1005.3
20260506201648 20 261 25.7 35.4 0.00 0.00 0.00 52 1005.3
20260506201549 20 280 25.7 35.4 0.00 0.00 0.00 51 1005.3
20260506201506 20 270 24.1 35.4 0.00 0.00 0.00 51 1004.3
20260506201422 20 270 25.7 33.8 0.00 0.00 0.00 51 1005.3
20260506201304 20 249 22.5 33.8 0.00 0.00 0.00 51 1005.3
20260506201205 20 272 16.1 25.7 0.00 0.00 0.00 51 1005.3
20260506201110 20 254 16.1 20.9 0.00 0.00 0.00 52 1005.3
20260506201041 20 269 14.5 19.3 0.00 0.00 0.00 52 1004.3
20260506201001 20 280 14.5 20.9 0.00 0.00 0.00 52 1005.2
20260506200905 20 273 11.3 19.3 0.00 0.00 0.00 51 1005.1
20260506200747 20 255 9.7 19.3 0.00 0.00 0.00 52 1005.0
20260506200648 20 236 11.3 19.3 0.00 0.00 0.00 51 1005.0
20260506200614 20 236 9.7 19.3 0.00 0.00 0.00 51 1004.0
20260506200539 20 250 8.0 19.3 0.00 0.00 0.00 52 1004.9
20260506200441 20 228 8.0 19.3 0.00 0.00 0.00 52 1004.9
20260506200344 20 231 12.9 19.3 0.00 0.00 0.00 51 1004.9
20260506200229 20 226 14.5 20.9 0.00 0.00 0.00 51 1004.8
20260506200155 20 243 11.3 19.3 0.00 0.00 0.00 52 1003.8
20260506200122 20 220 11.3 16.1 0.00 0.00 0.00 52 1004.8
20260506200022 20 239 8.0 16.1 0.00 0.00 0.00 52 1004.7
20260506195903 20 230 9.7 16.1 0.00 0.00 0.00 52 1004.7
20260506195745 20 228 9.7 16.1 0.00 0.00 0.00 52 1004.7
20260506195637 20 226 11.3 16.1 0.00 0.00 0.00 52 1004.7
20260506195537 20 212 11.3 16.1 0.00 0.00 0.00 51 1004.6
20260506195423 20 224 9.7 16.1 0.00 0.00 0.00 51 1004.6
20260506195326 20 228 9.7 16.1 0.00 0.00 0.00 51 1004.6
20260506195217 20 207 11.3 16.1 0.00 0.00 0.00 51 1004.6
20260506195120 20 211 9.7 16.1 0.00 0.00 0.00 51 1004.6
20260506195021 20 207 11.3 19.3 0.00 0.00 0.00 51 1004.5
20260506194924 20 220 11.3 19.3 0.00 0.00 0.00 51 1004.5
20260506194822 20 233 11.3 19.3 0.00 0.00 0.00 51 1004.5
20260506194724 20 221 11.3 19.3 0.00 0.00 0.00 51 1004.5
20260506194629 20 218 11.3 19.3 0.00 0.00 0.00 51 1004.5
20260506194529 20 227 11.3 19.3 0.00 0.00 0.00 51 1004.5
20260506194400 20 236 12.9 19.3 0.00 0.00 0.00 51 1004.5
20260506194303 20 237 12.9 19.3 0.00 0.00 0.00 51 1004.5
20260506194159 20 225 12.9 19.3 0.00 0.00 0.00 51 1004.5
20260506194107 20 202 12.9 17.7 0.00 0.00 0.00 51 1004.5
20260506194009 20 221 12.9 19.3 0.00 0.00 0.00 51 1004.5
20260506193903 20 191 12.9 19.3 0.00 0.00 0.00 51 1004.5
20260506193805 20 213 12.9 19.3 0.00 0.00 0.00 51 1004.5
20260506193608 20 226 12.9 19.3 0.00 0.00 0.00 51 1003.5
20260506193528 20 212 12.9 22.5 0.00 0.00 0.00 50 1004.6
20260506193430 20 224 12.9 22.5 0.00 0.00 0.00 50 1004.6
20260506193315 20 236 12.9 22.5 0.00 0.00 0.00 50 1004.6
20260506193217 20 216 11.3 22.5 0.00 0.00 0.00 50 1004.6
20260506193145 20 238 8.0 22.5 0.00 0.00 0.00 50 1003.4
20260506193111 20 220 8.0 22.5 0.00 0.00 0.00 50 1004.5
20260506193011 20 218 9.7 22.5 0.00 0.00 0.00 50 1004.5
20260506192915 20 224 11.3 22.5 0.00 0.00 0.00 50 1004.4
20260506192818 20 216 14.5 22.5 0.00 0.00 0.00 50 1004.4
20260506192716 20 267 14.5 22.5 0.00 0.00 0.00 50 1004.4
20260506192619 20 217 12.9 19.3 0.00 0.00 0.00 50 1004.4
20260506192458 20 216 8.0 19.3 0.00 0.00 0.00 50 1004.3
20260506192333 20 213 11.3 19.3 0.00 0.00 0.00 49 1004.4
20260506192235 20 222 12.9 19.3 0.00 0.00 0.00 49 1004.3
20260506192136 20 226 12.9 22.5 0.00 0.00 0.00 49 1004.2
20260506192105 20 241 12.9 22.5 0.00 0.00 0.00 49 1003.2
20260506192031 20 227 16.1 22.5 0.00 0.00 0.00 49 1004.2
20260506191934 20 219 14.5 19.3 0.00 0.00 0.00 49 1004.2
20260506191835 20 199 12.9 22.5 0.00 0.00 0.00 49 1004.2
20260506191738 21 205 12.9 22.5 0.00 0.00 0.00 49 1004.2
20260506191632 21 211 11.3 25.7 0.00 0.00 0.00 49 1004.2
20260506191511 21 225 14.5 25.7 0.00 0.00 0.00 49 1004.2
20260506191414 21 236 14.5 25.7 0.00 0.00 0.00 49 1004.2
20260506191319 21 210 12.9 25.7 0.00 0.00 0.00 48 1004.2
20260506191211 21 235 12.9 25.7 0.00 0.00 0.00 48 1004.2
20260506191114 20 228 16.1 25.7 0.00 0.00 0.00 48 1004.1
20260506191014 20 217 17.7 25.7 0.00 0.00 0.00 49 1004.1
20260506190916 20 255 16.1 25.7 0.00 0.00 0.00 48 1004.0
20260506190810 20 253 14.5 25.7 0.00 0.00 0.00 49 1004.0
20260506190717 20 211 11.3 25.7 0.00 0.00 0.00 49 1004.0
20260506190618 20 263 11.3 25.7 0.00 0.00 0.00 49 1003.9
20260506190501 20 228 12.9 25.7 0.00 0.00 0.00 48 1003.9
20260506190353 20 249 14.5 22.5 0.00 0.00 0.00 49 1003.9
20260506190255 20 240 12.9 22.5 0.00 0.00 0.00 49 1003.9
20260506190157 20 234 11.3 19.3 0.00 0.00 0.00 49 1003.8
20260506190116 20 250 8.0 17.7 0.00 0.00 0.00 49 1002.7
20260506190034 20 259 8.0 17.7 0.00 0.00 0.00 49 1003.7
20260506185937 20 238 8.0 17.7 0.00 0.00 0.00 49 1003.7
20260506185840 20 226 8.0 17.7 0.00 0.00 0.00 49 1003.7